| time (UTC) | temp C | wind direction | speed KPH | gust KPH | rain 1hr cm | rain 24hr cm | rain mn cm | humidity % | barometer mb |
| 20260506185307 | 17 | 234 | 6.4 | 19.3 | 0.00 | 0.00 | 0.00 | 72 | 1009.5 |
| 20260506185206 | 17 | 81 | 8.0 | 19.3 | 0.00 | 0.00 | 0.00 | 72 | 1009.4 |
| 20260506185008 | 17 | 105 | 8.0 | 16.1 | 0.00 | 0.00 | 0.00 | 72 | 1009.4 |
| 20260506184906 | 17 | 58 | 6.4 | 16.1 | 0.00 | 0.00 | 0.00 | 72 | 1009.5 |
| 20260506184806 | 17 | 6 | 8.0 | 16.1 | 0.00 | 0.00 | 0.00 | 72 | 1009.4 |
| 20260506184706 | 17 | 330 | 8.0 | 16.1 | 0.00 | 0.00 | 0.00 | 72 | 1009.4 |
| 20260506184607 | 17 | 171 | 8.0 | 16.1 | 0.00 | 0.00 | 0.00 | 72 | 1009.4 |
| 20260506184507 | 17 | 103 | 8.0 | 16.1 | 0.00 | 0.00 | 0.00 | 73 | 1009.3 |
| 20260506184406 | 17 | 79 | 6.4 | 16.1 | 0.00 | 0.00 | 0.00 | 72 | 1009.4 |
| 20260506184306 | 17 | 123 | 6.4 | 16.1 | 0.00 | 0.00 | 0.00 | 73 | 1009.4 |
| 20260506184207 | 17 | 88 | 6.4 | 16.1 | 0.00 | 0.00 | 0.00 | 73 | 1009.4 |
| 20260506184106 | 17 | 91 | 6.4 | 16.1 | 0.00 | 0.00 | 0.00 | 73 | 1009.3 |
| 20260506184008 | 17 | 110 | 6.4 | 16.1 | 0.00 | 0.00 | 0.00 | 73 | 1009.4 |
| 20260506183906 | 17 | 81 | 4.8 | 16.1 | 0.00 | 0.00 | 0.00 | 73 | 1009.4 |
| 20260506183806 | 17 | 101 | 6.4 | 16.1 | 0.00 | 0.00 | 0.00 | 73 | 1009.4 |
| 20260506183706 | 17 | 85 | 6.4 | 16.1 | 0.00 | 0.00 | 0.00 | 72 | 1009.4 |
| 20260506183606 | 17 | 74 | 4.8 | 16.1 | 0.00 | 0.00 | 0.00 | 72 | 1009.5 |
| 20260506183509 | 17 | 96 | 4.8 | 14.5 | 0.00 | 0.00 | 0.00 | 72 | 1009.4 |
| 20260506183406 | 17 | 130 | 4.8 | 14.5 | 0.00 | 0.00 | 0.00 | 72 | 1009.3 |
| 20260506183307 | 17 | 316 | 4.8 | 12.9 | 0.00 | 0.00 | 0.00 | 72 | 1009.3 |
| 20260506183206 | 17 | 107 | 4.8 | 14.5 | 0.00 | 0.00 | 0.00 | 72 | 1009.3 |
| 20260506183009 | 17 | 64 | 6.4 | 14.5 | 0.00 | 0.00 | 0.00 | 72 | 1009.4 |
| 20260506182906 | 17 | 112 | 6.4 | 14.5 | 0.00 | 0.00 | 0.00 | 72 | 1009.4 |
| 20260506182805 | 17 | 106 | 6.4 | 17.7 | 0.00 | 0.00 | 0.00 | 72 | 1009.3 |
| 20260506182705 | 17 | 86 | 6.4 | 20.9 | 0.00 | 0.00 | 0.00 | 72 | 1009.4 |
| 20260506182605 | 17 | 160 | 6.4 | 20.9 | 0.00 | 0.00 | 0.00 | 72 | 1009.3 |
| 20260506182406 | 17 | 114 | 6.4 | 20.9 | 0.00 | 0.00 | 0.00 | 72 | 1009.3 |
| 20260506182307 | 17 | 96 | 6.4 | 20.9 | 0.00 | 0.00 | 0.00 | 72 | 1009.4 |
| 20260506182206 | 17 | 79 | 6.4 | 20.9 | 0.00 | 0.00 | 0.00 | 72 | 1009.3 |
| 20260506182106 | 17 | 56 | 6.4 | 20.9 | 0.00 | 0.00 | 0.00 | 72 | 1009.3 |
| 20260506182008 | 17 | 114 | 6.4 | 20.9 | 0.00 | 0.00 | 0.00 | 72 | 1009.3 |
| 20260506181907 | 17 | 145 | 6.4 | 20.9 | 0.00 | 0.00 | 0.00 | 72 | 1009.3 |
| 20260506181806 | 17 | 95 | 6.4 | 20.9 | 0.00 | 0.00 | 0.00 | 71 | 1009.2 |
| 20260506181706 | 17 | 121 | 4.8 | 19.3 | 0.00 | 0.00 | 0.00 | 72 | 1009.3 |
| 20260506181609 | 17 | 105 | 4.8 | 19.3 | 0.00 | 0.00 | 0.00 | 72 | 1009.3 |
| 20260506181507 | 17 | 150 | 4.8 | 19.3 | 0.00 | 0.00 | 0.00 | 72 | 1009.3 |
| 20260506181306 | 17 | 124 | 4.8 | 19.3 | 0.00 | 0.00 | 0.00 | 71 | 1009.3 |
| 20260506181206 | 17 | 64 | 4.8 | 14.5 | 0.00 | 0.00 | 0.00 | 71 | 1009.3 |
| 20260506181106 | 17 | 81 | 4.8 | 14.5 | 0.00 | 0.00 | 0.00 | 71 | 1009.4 |
| 20260506181010 | 17 | 86 | 4.8 | 14.5 | 0.00 | 0.00 | 0.00 | 71 | 1009.3 |
| 20260506180707 | 17 | 256 | 6.4 | 14.5 | 0.00 | 0.00 | 0.00 | 71 | 1009.4 |
| 20260506180606 | 17 | 102 | 6.4 | 17.7 | 0.00 | 0.00 | 0.00 | 71 | 1009.4 |
| 20260506180306 | 17 | 137 | 6.4 | 17.7 | 0.00 | 0.00 | 0.00 | 71 | 1009.4 |
| 20260506180106 | 17 | 45 | 6.4 | 17.7 | 0.00 | 0.00 | 0.00 | 71 | 1009.4 |
| 20260506180009 | 17 | 49 | 4.8 | 17.7 | 0.00 | 0.00 | 0.00 | 70 | 1009.3 |
| 20260506175907 | 17 | 110 | 4.8 | 17.7 | 0.00 | 0.00 | 0.00 | 70 | 1009.3 |
| 20260506175605 | 17 | 34 | 3.2 | 14.5 | 0.00 | 0.00 | 0.00 | 71 | 1009.4 |
| 20260506175508 | 17 | 104 | 3.2 | 12.9 | 0.00 | 0.00 | 0.00 | 71 | 1009.4 |
| 20260506175406 | 17 | 4 | 3.2 | 9.7 | 0.00 | 0.00 | 0.00 | 71 | 1009.3 |
| 20260506175306 | 17 | 11 | 4.8 | 16.1 | 0.00 | 0.00 | 0.00 | 71 | 1009.4 |
| 20260506175107 | 17 | 98 | 4.8 | 16.1 | 0.00 | 0.00 | 0.00 | 71 | 1009.5 |
| 20260506175012 | 17 | 50 | 4.8 | 16.1 | 0.00 | 0.00 | 0.00 | 71 | 1009.4 |
| 20260506174907 | 17 | 100 | 4.8 | 16.1 | 0.00 | 0.00 | 0.00 | 71 | 1009.4 |
| 20260506174805 | 17 | 259 | 4.8 | 16.1 | 0.00 | 0.00 | 0.00 | 71 | 1009.4 |
| 20260506174706 | 17 | 335 | 4.8 | 16.1 | 0.00 | 0.00 | 0.00 | 71 | 1009.4 |
| 20260506174606 | 17 | 353 | 4.8 | 16.1 | 0.00 | 0.00 | 0.00 | 71 | 1009.4 |
| 20260506174507 | 17 | 116 | 4.8 | 16.1 | 0.00 | 0.00 | 0.00 | 71 | 1009.4 |
| 20260506174407 | 17 | 340 | 4.8 | 16.1 | 0.00 | 0.00 | 0.00 | 71 | 1009.4 |
| 20260506174306 | 17 | 345 | 4.8 | 16.1 | 0.00 | 0.00 | 0.00 | 71 | 1009.4 |
| 20260506174106 | 17 | 102 | 4.8 | 16.1 | 0.00 | 0.00 | 0.00 | 71 | 1009.5 |
| 20260506174007 | 17 | 154 | 4.8 | 16.1 | 0.00 | 0.00 | 0.00 | 71 | 1009.6 |
| 20260506173906 | 17 | 100 | 4.8 | 16.1 | 0.00 | 0.00 | 0.00 | 71 | 1009.5 |
| 20260506173806 | 17 | 304 | 6.4 | 16.1 | 0.00 | 0.00 | 0.00 | 71 | 1009.6 |
| 20260506173706 | 17 | 16 | 6.4 | 16.1 | 0.00 | 0.00 | 0.00 | 71 | 1009.6 |
| 20260506173507 | 17 | 100 | 6.4 | 16.1 | 0.00 | 0.00 | 0.00 | 71 | 1009.6 |
| 20260506173407 | 17 | 62 | 6.4 | 16.1 | 0.00 | 0.00 | 0.00 | 71 | 1009.6 |
| 20260506173306 | 17 | 347 | 6.4 | 22.5 | 0.00 | 0.00 | 0.00 | 71 | 1009.6 |
| 20260506173206 | 17 | 81 | 6.4 | 22.5 | 0.00 | 0.00 | 0.00 | 71 | 1009.6 |
| 20260506173106 | 17 | 330 | 6.4 | 22.5 | 0.00 | 0.00 | 0.00 | 71 | 1009.6 |
| 20260506173008 | 17 | 75 | 8.0 | 22.5 | 0.00 | 0.00 | 0.00 | 71 | 1009.6 |
| 20260506172906 | 17 | 23 | 6.4 | 22.5 | 0.00 | 0.00 | 0.00 | 71 | 1009.6 |
| 20260506172806 | 17 | 140 | 6.4 | 22.5 | 0.00 | 0.00 | 0.00 | 71 | 1009.5 |
| 20260506172706 | 17 | 152 | 6.4 | 22.5 | 0.00 | 0.00 | 0.00 | 71 | 1009.5 |
| 20260506172606 | 17 | 45 | 6.4 | 22.5 | 0.00 | 0.00 | 0.00 | 71 | 1009.5 |
| 20260506172507 | 17 | 83 | 6.4 | 22.5 | 0.00 | 0.00 | 0.00 | 71 | 1009.5 |
| 20260506172207 | 17 | 55 | 8.0 | 22.5 | 0.00 | 0.00 | 0.00 | 71 | 1009.5 |
| 20260506171906 | 17 | 193 | 9.7 | 22.5 | 0.00 | 0.00 | 0.00 | 72 | 1009.5 |
| 20260506171807 | 17 | 226 | 9.7 | 22.5 | 0.00 | 0.00 | 0.00 | 72 | 1009.5 |
| 20260506171707 | 17 | 110 | 11.3 | 22.5 | 0.00 | 0.00 | 0.00 | 72 | 1009.5 |
| 20260506171606 | 17 | 13 | 11.3 | 22.5 | 0.00 | 0.00 | 0.00 | 72 | 1009.5 |
| 20260506171509 | 17 | 67 | 11.3 | 22.5 | 0.00 | 0.00 | 0.00 | 72 | 1009.5 |
| 20260506171407 | 17 | 48 | 11.3 | 22.5 | 0.00 | 0.00 | 0.00 | 72 | 1009.5 |
| 20260506171306 | 17 | 75 | 11.3 | 20.9 | 0.00 | 0.00 | 0.00 | 72 | 1009.5 |
| 20260506171206 | 17 | 39 | 9.7 | 20.9 | 0.00 | 0.00 | 0.00 | 71 | 1009.5 |
| 20260506171106 | 17 | 79 | 9.7 | 22.5 | 0.00 | 0.00 | 0.00 | 71 | 1009.5 |
| 20260506171008 | 17 | 93 | 9.7 | 22.5 | 0.00 | 0.00 | 0.00 | 71 | 1009.5 |
| 20260506170906 | 17 | 41 | 9.7 | 22.5 | 0.00 | 0.00 | 0.00 | 70 | 1009.4 |
| 20260506170806 | 18 | 72 | 8.0 | 22.5 | 0.00 | 0.00 | 0.00 | 71 | 1009.4 |
| 20260506170606 | 18 | 52 | 8.0 | 22.5 | 0.00 | 0.00 | 0.00 | 71 | 1009.5 |
| 20260506170507 | 18 | 60 | 8.0 | 22.5 | 0.00 | 0.00 | 0.00 | 71 | 1009.4 |
| 20260506170405 | 18 | 23 | 6.4 | 22.5 | 0.00 | 0.00 | 0.00 | 71 | 1009.4 |
| 20260506170307 | 18 | 21 | 6.4 | 22.5 | 0.00 | 0.00 | 0.00 | 70 | 1009.4 |
| 20260506170109 | 18 | 32 | 4.8 | 22.5 | 0.00 | 0.00 | 0.00 | 71 | 1009.5 |
| 20260506170009 | 18 | 75 | 4.8 | 20.9 | 0.00 | 0.00 | 0.00 | 71 | 1009.5 |
| 20260506165906 | 18 | 184 | 4.8 | 20.9 | 0.00 | 0.00 | 0.00 | 71 | 1009.5 |
| 20260506165806 | 18 | 110 | 4.8 | 20.9 | 0.00 | 0.00 | 0.00 | 70 | 1009.4 |
| 20260506165706 | 18 | 103 | 4.8 | 20.9 | 0.00 | 0.00 | 0.00 | 70 | 1009.5 |
| 20260506165606 | 18 | 360 | 3.2 | 20.9 | 0.00 | 0.00 | 0.00 | 69 | 1009.5 |
| 20260506165106 | 18 | 360 | 3.2 | 9.7 | 0.00 | 0.00 | 0.00 | 70 | 1009.4 |
| 20260506164806 | 18 | 190 | 4.8 | 19.3 | 0.00 | 0.00 | 0.00 | 70 | 1009.4 |
| 20260506164708 | 18 | 156 | 4.8 | 19.3 | 0.00 | 0.00 | 0.00 | 70 | 1009.4 |
| 20260506164606 | 18 | 229 | 4.8 | 19.3 | 0.00 | 0.00 | 0.00 | 70 | 1009.4 |
| 20260506164508 | 18 | 345 | 4.8 | 19.3 | 0.00 | 0.00 | 0.00 | 70 | 1009.4 |
| 20260506164406 | 18 | 87 | 4.8 | 19.3 | 0.00 | 0.00 | 0.00 | 70 | 1009.4 |
| 20260506164306 | 18 | 65 | 4.8 | 19.3 | 0.00 | 0.00 | 0.00 | 71 | 1009.4 |
| 20260506164206 | 18 | 16 | 4.8 | 19.3 | 0.00 | 0.00 | 0.00 | 70 | 1009.5 |
| 20260506164105 | 18 | 79 | 4.8 | 19.3 | 0.00 | 0.00 | 0.00 | 70 | 1009.4 |
| 20260506164008 | 18 | 97 | 4.8 | 19.3 | 0.00 | 0.00 | 0.00 | 71 | 1009.4 |
| 20260506163906 | 18 | 125 | 4.8 | 16.1 | 0.00 | 0.00 | 0.00 | 71 | 1009.5 |
| 20260506163806 | 18 | 181 | 4.8 | 16.1 | 0.00 | 0.00 | 0.00 | 71 | 1009.5 |
| 20260506163707 | 18 | 207 | 4.8 | 16.1 | 0.00 | 0.00 | 0.00 | 71 | 1009.5 |
| 20260506163607 | 18 | 150 | 4.8 | 16.1 | 0.00 | 0.00 | 0.00 | 70 | 1009.5 |
| 20260506163508 | 18 | 57 | 4.8 | 16.1 | 0.00 | 0.00 | 0.00 | 70 | 1009.4 |
| 20260506163407 | 18 | 71 | 4.8 | 16.1 | 0.00 | 0.00 | 0.00 | 70 | 1009.5 |
| 20260506163307 | 18 | 176 | 4.8 | 16.1 | 0.00 | 0.00 | 0.00 | 70 | 1009.5 |
| 20260506163207 | 18 | 137 | 4.8 | 16.1 | 0.00 | 0.00 | 0.00 | 70 | 1009.5 |
| 20260506163106 | 18 | 143 | 4.8 | 16.1 | 0.00 | 0.00 | 0.00 | 70 | 1009.4 |
| 20260506163009 | 18 | 159 | 6.4 | 17.7 | 0.00 | 0.00 | 0.00 | 70 | 1009.4 |
| 20260506162906 | 18 | 96 | 6.4 | 19.3 | 0.00 | 0.00 | 0.00 | 70 | 1009.4 |
| 20260506162806 | 18 | 108 | 8.0 | 22.5 | 0.00 | 0.00 | 0.00 | 69 | 1009.4 |
| 20260506162705 | 18 | 345 | 8.0 | 22.5 | 0.00 | 0.00 | 0.00 | 69 | 1009.4 |
| 20260506162608 | 18 | 143 | 8.0 | 22.5 | 0.00 | 0.00 | 0.00 | 69 | 1009.4 |
| 20260506162508 | 18 | 74 | 8.0 | 22.5 | 0.00 | 0.00 | 0.00 | 69 | 1009.4 |
| 20260506162406 | 18 | 11 | 8.0 | 22.5 | 0.00 | 0.00 | 0.00 | 69 | 1009.3 |
| 20260506162307 | 18 | 325 | 8.0 | 22.5 | 0.00 | 0.00 | 0.00 | 69 | 1009.3 |
| 20260506162207 | 18 | 46 | 6.4 | 22.5 | 0.00 | 0.00 | 0.00 | 69 | 1009.3 |
| 20260506162106 | 18 | 123 | 6.4 | 22.5 | 0.00 | 0.00 | 0.00 | 69 | 1009.4 |
| 20260506162008 | 18 | 79 | 4.8 | 22.5 | 0.00 | 0.00 | 0.00 | 69 | 1009.4 |
| 20260506161907 | 18 | 81 | 4.8 | 19.3 | 0.00 | 0.00 | 0.00 | 69 | 1009.4 |
| 20260506161806 | 18 | 39 | 4.8 | 19.3 | 0.00 | 0.00 | 0.00 | 69 | 1009.4 |
| 20260506161705 | 18 | 79 | 3.2 | 14.5 | 0.00 | 0.00 | 0.00 | 69 | 1009.4 |
| 20260506161511 | 18 | 95 | 4.8 | 12.9 | 0.00 | 0.00 | 0.00 | 69 | 1009.3 |
| 20260506161405 | 18 | 49 | 4.8 | 17.7 | 0.00 | 0.00 | 0.00 | 69 | 1009.3 |
| 20260506161311 | 18 | 61 | 3.2 | 17.7 | 0.00 | 0.00 | 0.00 | 68 | 1009.3 |
| 20260506161219 | 18 | 83 | 3.2 | 17.7 | 0.00 | 0.00 | 0.00 | 68 | 1009.4 |
| 20260506161113 | 18 | 291 | 3.2 | 17.7 | 0.00 | 0.00 | 0.00 | 68 | 1009.4 |
| 20260506161009 | 18 | 67 | 4.8 | 17.7 | 0.00 | 0.00 | 0.00 | 68 | 1009.4 |
| 20260506160913 | 18 | 269 | 4.8 | 17.7 | 0.00 | 0.00 | 0.00 | 68 | 1009.4 |
| 20260506160820 | 18 | 33 | 4.8 | 17.7 | 0.00 | 0.00 | 0.00 | 68 | 1009.3 |
| 20260506160720 | 18 | 276 | 4.8 | 17.7 | 0.00 | 0.00 | 0.00 | 69 | 1009.5 |
| 20260506160507 | 18 | 108 | 4.8 | 17.7 | 0.00 | 0.00 | 0.00 | 69 | 1009.5 |
| 20260506160405 | 18 | 151 | 4.8 | 16.1 | 0.00 | 0.00 | 0.00 | 69 | 1009.5 |
| 20260506160206 | 18 | 85 | 4.8 | 19.3 | 0.00 | 0.00 | 0.00 | 69 | 1009.5 |
| 20260506160105 | 18 | 45 | 4.8 | 19.3 | 0.00 | 0.00 | 0.00 | 70 | 1009.4 |
| 20260506160010 | 18 | 8 | 4.8 | 19.3 | 0.00 | 0.00 | 0.00 | 69 | 1009.5 |
| 20260506155906 | 18 | 335 | 4.8 | 19.3 | 0.00 | 0.00 | 0.00 | 69 | 1009.5 |
| 20260506155805 | 18 | 41 | 6.4 | 19.3 | 0.00 | 0.00 | 0.00 | 69 | 1009.4 |
| 20260506155707 | 18 | 103 | 6.4 | 19.3 | 0.00 | 0.00 | 0.00 | 69 | 1009.5 |
| 20260506155606 | 18 | 125 | 6.4 | 19.3 | 0.00 | 0.00 | 0.00 | 69 | 1009.5 |
| 20260506155507 | 18 | 53 | 4.8 | 19.3 | 0.00 | 0.00 | 0.00 | 69 | 1009.4 |
| 20260506155406 | 18 | 113 | 4.8 | 17.7 | 0.00 | 0.00 | 0.00 | 70 | 1009.4 |
| 20260506155306 | 18 | 77 | 4.8 | 14.5 | 0.00 | 0.00 | 0.00 | 70 | 1009.4 |
| 20260506155205 | 18 | 193 | 4.8 | 14.5 | 0.00 | 0.00 | 0.00 | 70 | 1009.4 |
| 20260506155106 | 18 | 264 | 6.4 | 14.5 | 0.00 | 0.00 | 0.00 | 70 | 1009.4 |
| 20260506154906 | 18 | 234 | 6.4 | 17.7 | 0.00 | 0.00 | 0.00 | 69 | 1009.4 |
| 20260506154806 | 18 | 118 | 6.4 | 17.7 | 0.00 | 0.00 | 0.00 | 69 | 1009.4 |
| 20260506154707 | 18 | 259 | 8.0 | 17.7 | 0.00 | 0.00 | 0.00 | 69 | 1009.4 |
| 20260506154508 | 18 | 76 | 8.0 | 19.3 | 0.00 | 0.00 | 0.00 | 70 | 1009.5 |
| 20260506154405 | 18 | 90 | 8.0 | 22.5 | 0.00 | 0.00 | 0.00 | 70 | 1009.4 |
| 20260506154306 | 18 | 48 | 9.7 | 22.5 | 0.00 | 0.00 | 0.00 | 70 | 1009.5 |
| 20260506154206 | 18 | 299 | 9.7 | 22.5 | 0.00 | 0.00 | 0.00 | 69 | 1009.4 |
| 20260506154106 | 18 | 70 | 8.0 | 22.5 | 0.00 | 0.00 | 0.00 | 70 | 1009.5 |
| 20260506154008 | 18 | 120 | 8.0 | 22.5 | 0.00 | 0.00 | 0.00 | 70 | 1009.4 |
| 20260506153805 | 18 | 138 | 8.0 | 22.5 | 0.00 | 0.00 | 0.00 | 69 | 1009.5 |
| 20260506153706 | 18 | 125 | 6.4 | 22.5 | 0.00 | 0.00 | 0.00 | 69 | 1009.5 |
| 20260506153615 | 18 | 116 | 4.8 | 22.5 | 0.00 | 0.00 | 0.00 | 70 | 1009.5 |
| 20260506153508 | 18 | 75 | 4.8 | 19.3 | 0.00 | 0.00 | 0.00 | 70 | 1009.5 |
| 20260506153406 | 18 | 90 | 6.4 | 19.3 | 0.00 | 0.00 | 0.00 | 70 | 1009.5 |
| 20260506153306 | 18 | 118 | 6.4 | 19.3 | 0.00 | 0.00 | 0.00 | 69 | 1009.4 |
| 20260506152906 | 18 | 295 | 8.0 | 24.1 | 0.00 | 0.00 | 0.00 | 70 | 1009.4 |
| 20260506152705 | 18 | 261 | 9.7 | 24.1 | 0.00 | 0.00 | 0.00 | 70 | 1009.4 |
| 20260506152607 | 18 | 182 | 9.7 | 24.1 | 0.00 | 0.00 | 0.00 | 70 | 1009.4 |
| 20260506152508 | 18 | 248 | 9.7 | 24.1 | 0.00 | 0.00 | 0.00 | 69 | 1009.4 |
| 20260506152406 | 18 | 96 | 9.7 | 24.1 | 0.00 | 0.00 | 0.00 | 69 | 1009.4 |
| 20260506152306 | 18 | 113 | 8.0 | 24.1 | 0.00 | 0.00 | 0.00 | 69 | 1009.4 |
| 20260506152206 | 18 | 104 | 8.0 | 24.1 | 0.00 | 0.00 | 0.00 | 69 | 1009.3 |
| 20260506152106 | 18 | 146 | 8.0 | 24.1 | 0.00 | 0.00 | 0.00 | 69 | 1009.4 |
| 20260506151807 | 18 | 146 | 9.7 | 20.9 | 0.00 | 0.00 | 0.00 | 69 | 1009.3 |
| 20260506151707 | 18 | 55 | 8.0 | 20.9 | 0.00 | 0.00 | 0.00 | 69 | 1009.3 |
| 20260506151606 | 18 | 119 | 8.0 | 20.9 | 0.00 | 0.00 | 0.00 | 69 | 1009.3 |
| 20260506151306 | 18 | 77 | 8.0 | 20.9 | 0.00 | 0.00 | 0.00 | 70 | 1009.4 |
| 20260506151106 | 18 | 95 | 8.0 | 20.9 | 0.00 | 0.00 | 0.00 | 69 | 1009.4 |
| 20260506151009 | 18 | 107 | 8.0 | 20.9 | 0.00 | 0.00 | 0.00 | 69 | 1009.4 |
| 20260506150905 | 18 | 84 | 8.0 | 20.9 | 0.00 | 0.00 | 0.00 | 69 | 1009.5 |
| 20260506150805 | 18 | 65 | 8.0 | 20.9 | 0.00 | 0.00 | 0.00 | 69 | 1009.5 |
| 20260506150706 | 18 | 167 | 9.7 | 20.9 | 0.00 | 0.00 | 0.00 | 70 | 1009.4 |
| 20260506150607 | 18 | 88 | 9.7 | 20.9 | 0.00 | 0.00 | 0.00 | 70 | 1009.5 |
| 20260506150508 | 18 | 49 | 9.7 | 20.9 | 0.00 | 0.00 | 0.00 | 71 | 1009.4 |
| 20260506150406 | 18 | 6 | 11.3 | 20.9 | 0.00 | 0.00 | 0.00 | 71 | 1009.4 |
| 20260506150307 | 18 | 101 | 11.3 | 20.9 | 0.00 | 0.00 | 0.00 | 72 | 1009.4 |
| 20260506150205 | 18 | 127 | 11.3 | 20.9 | 0.00 | 0.00 | 0.00 | 72 | 1009.4 |
| 20260506150108 | 18 | 111 | 11.3 | 20.9 | 0.00 | 0.00 | 0.00 | 72 | 1009.4 |
| 20260506150008 | 18 | 89 | 11.3 | 22.5 | 0.00 | 0.00 | 0.00 | 72 | 1009.4 |
| 20260506145907 | 18 | 109 | 11.3 | 22.5 | 0.00 | 0.00 | 0.00 | 71 | 1009.4 |
| 20260506145806 | 18 | 111 | 9.7 | 22.5 | 0.00 | 0.00 | 0.00 | 71 | 1009.4 |
| 20260506145705 | 18 | 29 | 9.7 | 22.5 | 0.00 | 0.00 | 0.00 | 71 | 1009.4 |
| 20260506145607 | 18 | 141 | 9.7 | 22.5 | 0.00 | 0.00 | 0.00 | 70 | 1009.4 |
| 20260506145507 | 18 | 27 | 11.3 | 22.5 | 0.00 | 0.00 | 0.00 | 70 | 1009.4 |
| 20260506145408 | 18 | 139 | 11.3 | 24.1 | 0.00 | 0.00 | 0.00 | 70 | 1009.4 |
| 20260506145319 | 18 | 109 | 11.3 | 22.5 | 0.00 | 0.00 | 0.00 | 70 | 1009.4 |
| 20260506145205 | 18 | 145 | 11.3 | 22.5 | 0.00 | 0.00 | 0.00 | 70 | 1009.4 |
| 20260506145119 | 18 | 95 | 11.3 | 24.1 | 0.00 | 0.00 | 0.00 | 69 | 1009.4 |
| 20260506145030 | 18 | 135 | 11.3 | 25.7 | 0.00 | 0.00 | 0.00 | 69 | 1009.4 |
| 20260506144917 | 18 | 126 | 11.3 | 25.7 | 0.00 | 0.00 | 0.00 | 70 | 1009.5 |
| 20260506144707 | 17 | 179 | 12.9 | 25.7 | 0.00 | 0.00 | 0.00 | 70 | 1009.5 |
| 20260506144607 | 17 | 212 | 12.9 | 25.7 | 0.00 | 0.00 | 0.00 | 70 | 1009.5 |
| 20260506144407 | 17 | 90 | 12.9 | 25.7 | 0.00 | 0.00 | 0.00 | 70 | 1009.5 |
| 20260506144307 | 17 | 168 | 12.9 | 25.7 | 0.00 | 0.00 | 0.00 | 70 | 1009.6 |
| 20260506144007 | 18 | 167 | 11.3 | 24.1 | 0.00 | 0.00 | 0.00 | 70 | 1009.6 |
| 20260506143907 | 18 | 60 | 11.3 | 24.1 | 0.00 | 0.00 | 0.00 | 70 | 1009.6 |
| 20260506143806 | 18 | 100 | 11.3 | 24.1 | 0.00 | 0.00 | 0.00 | 70 | 1009.6 |
| 20260506143706 | 18 | 158 | 11.3 | 24.1 | 0.00 | 0.00 | 0.00 | 71 | 1009.6 |
| 20260506143606 | 18 | 91 | 11.3 | 24.1 | 0.00 | 0.00 | 0.00 | 72 | 1009.6 |
| 20260506143508 | 18 | 154 | 12.9 | 25.7 | 0.00 | 0.00 | 0.00 | 72 | 1009.6 |
| 20260506143307 | 18 | 140 | 11.3 | 25.7 | 0.00 | 0.00 | 0.00 | 71 | 1009.7 |
| 20260506143207 | 18 | 99 | 12.9 | 25.7 | 0.00 | 0.00 | 0.00 | 72 | 1009.7 |
| 20260506143105 | 18 | 54 | 12.9 | 25.7 | 0.00 | 0.00 | 0.00 | 71 | 1009.7 |
| 20260506143009 | 18 | 91 | 12.9 | 25.7 | 0.00 | 0.00 | 0.00 | 71 | 1009.7 |
| 20260506142905 | 18 | 142 | 12.9 | 25.7 | 0.00 | 0.00 | 0.00 | 71 | 1009.7 |
| 20260506142805 | 18 | 145 | 12.9 | 25.7 | 0.00 | 0.00 | 0.00 | 71 | 1009.7 |
| 20260506142607 | 18 | 77 | 12.9 | 25.7 | 0.00 | 0.00 | 0.00 | 71 | 1009.8 |
| 20260506142508 | 18 | 133 | 12.9 | 25.7 | 0.00 | 0.00 | 0.00 | 71 | 1009.9 |
| 20260506142406 | 18 | 76 | 11.3 | 25.7 | 0.00 | 0.00 | 0.00 | 70 | 1009.8 |
| 20260506142306 | 18 | 85 | 11.3 | 25.7 | 0.00 | 0.00 | 0.00 | 70 | 1009.9 |
| 20260506142206 | 18 | 139 | 11.3 | 25.7 | 0.00 | 0.00 | 0.00 | 70 | 1009.8 |
| 20260506142007 | 18 | 105 | 11.3 | 25.7 | 0.00 | 0.00 | 0.00 | 70 | 1009.9 |
| 20260506141907 | 18 | 116 | 11.3 | 25.7 | 0.00 | 0.00 | 0.00 | 70 | 1009.9 |
| 20260506141706 | 18 | 113 | 9.7 | 25.7 | 0.00 | 0.00 | 0.00 | 70 | 1010.0 |
| 20260506141507 | 18 | 335 | 9.7 | 25.7 | 0.00 | 0.00 | 0.00 | 70 | 1010.0 |
| 20260506141405 | 18 | 68 | 9.7 | 25.7 | 0.00 | 0.00 | 0.00 | 69 | 1010.0 |
| 20260506141306 | 18 | 98 | 9.7 | 25.7 | 0.00 | 0.00 | 0.00 | 69 | 1009.9 |
| 20260506141009 | 18 | 102 | 8.0 | 22.5 | 0.00 | 0.00 | 0.00 | 70 | 1009.9 |
| 20260506140908 | 18 | 96 | 9.7 | 22.5 | 0.00 | 0.00 | 0.00 | 70 | 1009.9 |
| 20260506140806 | 18 | 82 | 9.7 | 22.5 | 0.00 | 0.00 | 0.00 | 70 | 1009.9 |
| 20260506140706 | 18 | 75 | 9.7 | 22.5 | 0.00 | 0.00 | 0.00 | 70 | 1009.9 |
| 20260506140606 | 18 | 99 | 9.7 | 22.5 | 0.00 | 0.00 | 0.00 | 69 | 1009.9 |
| 20260506140406 | 18 | 111 | 9.7 | 20.9 | 0.00 | 0.00 | 0.00 | 70 | 1009.9 |
| 20260506140306 | 18 | 145 | 9.7 | 19.3 | 0.00 | 0.00 | 0.00 | 70 | 1009.9 |
| 20260506140205 | 18 | 118 | 9.7 | 19.3 | 0.00 | 0.00 | 0.00 | 70 | 1009.9 |
| 20260506140108 | 18 | 80 | 9.7 | 19.3 | 0.00 | 0.00 | 0.00 | 70 | 1009.9 |
| 20260506140009 | 18 | 112 | 9.7 | 19.3 | 0.00 | 0.00 | 0.00 | 70 | 1009.9 |
| 20260506135907 | 18 | 88 | 11.3 | 19.3 | 0.00 | 0.00 | 0.00 | 70 | 1009.9 |
| 20260506135807 | 18 | 122 | 9.7 | 19.3 | 0.00 | 0.00 | 0.00 | 69 | 1009.9 |
| 20260506135606 | 18 | 116 | 9.7 | 25.7 | 0.00 | 0.00 | 0.00 | 69 | 1009.9 |
| 20260506135507 | 18 | 121 | 9.7 | 25.7 | 0.00 | 0.00 | 0.00 | 69 | 1009.9 |
| 20260506135306 | 18 | 68 | 8.0 | 25.7 | 0.00 | 0.00 | 0.00 | 69 | 1010.0 |
| 20260506135205 | 18 | 86 | 9.7 | 25.7 | 0.00 | 0.00 | 0.00 | 69 | 1009.9 |
| 20260506135105 | 18 | 70 | 8.0 | 25.7 | 0.00 | 0.00 | 0.00 | 69 | 1009.9 |
| 20260506135008 | 18 | 56 | 8.0 | 25.7 | 0.00 | 0.00 | 0.00 | 69 | 1009.9 |
| 20260506134906 | 18 | 90 | 8.0 | 25.7 | 0.00 | 0.00 | 0.00 | 68 | 1010.0 |
| 20260506134705 | 18 | 62 | 8.0 | 17.7 | 0.00 | 0.00 | 0.00 | 69 | 1009.9 |
| 20260506134606 | 18 | 214 | 8.0 | 16.1 | 0.00 | 0.00 | 0.00 | 68 | 1009.9 |
| 20260506134508 | 18 | 137 | 8.0 | 24.1 | 0.00 | 0.00 | 0.00 | 68 | 1010.0 |
| 20260506134306 | 18 | 96 | 8.0 | 24.1 | 0.00 | 0.00 | 0.00 | 67 | 1010.0 |
| 20260506134206 | 18 | 51 | 6.4 | 24.1 | 0.00 | 0.00 | 0.00 | 66 | 1009.9 |
| 20260506134009 | 18 | 113 | 8.0 | 24.1 | 0.00 | 0.00 | 0.00 | 66 | 1010.0 |
| 20260506133906 | 18 | 128 | 8.0 | 24.1 | 0.00 | 0.00 | 0.00 | 66 | 1009.9 |
| 20260506133807 | 18 | 145 | 6.4 | 24.1 | 0.00 | 0.00 | 0.00 | 66 | 1010.0 |
| 20260506133706 | 18 | 91 | 6.4 | 24.1 | 0.00 | 0.00 | 0.00 | 66 | 1010.0 |
| 20260506133606 | 18 | 121 | 6.4 | 17.7 | 0.00 | 0.00 | 0.00 | 66 | 1009.9 |
| 20260506133507 | 18 | 89 | 6.4 | 20.9 | 0.00 | 0.00 | 0.00 | 67 | 1009.9 |
| 20260506133405 | 18 | 81 | 6.4 | 20.9 | 0.00 | 0.00 | 0.00 | 66 | 1010.0 |
| 20260506133305 | 18 | 96 | 6.4 | 20.9 | 0.00 | 0.00 | 0.00 | 67 | 1010.0 |
| 20260506133205 | 18 | 113 | 6.4 | 20.9 | 0.00 | 0.00 | 0.00 | 67 | 1010.0 |
| 20260506133106 | 18 | 73 | 4.8 | 20.9 | 0.00 | 0.00 | 0.00 | 67 | 1010.0 |
| 20260506133009 | 18 | 68 | 6.4 | 20.9 | 0.00 | 0.00 | 0.00 | 67 | 1009.9 |
| 20260506132906 | 18 | 33 | 6.4 | 20.9 | 0.00 | 0.00 | 0.00 | 67 | 1009.9 |
| 20260506132805 | 18 | 232 | 6.4 | 20.9 | 0.00 | 0.00 | 0.00 | 67 | 1009.9 |
| 20260506132705 | 18 | 123 | 6.4 | 20.9 | 0.00 | 0.00 | 0.00 | 67 | 1010.0 |
| 20260506132606 | 18 | 201 | 6.4 | 17.7 | 0.00 | 0.00 | 0.00 | 67 | 1010.0 |
| 20260506132508 | 18 | 3 | 6.4 | 17.7 | 0.00 | 0.00 | 0.00 | 67 | 1009.9 |
| 20260506132407 | 18 | 108 | 4.8 | 19.3 | 0.00 | 0.00 | 0.00 | 68 | 1010.0 |
| 20260506132308 | 18 | 349 | 6.4 | 16.1 | 0.00 | 0.00 | 0.00 | 67 | 1009.9 |
| 20260506132208 | 18 | 60 | 6.4 | 16.1 | 0.00 | 0.00 | 0.00 | 68 | 1009.9 |
| 20260506132106 | 18 | 352 | 6.4 | 16.1 | 0.00 | 0.00 | 0.00 | 68 | 1009.9 |
| 20260506132008 | 18 | 114 | 6.4 | 16.1 | 0.00 | 0.00 | 0.00 | 68 | 1009.9 |
| 20260506131806 | 18 | 63 | 6.4 | 20.9 | 0.00 | 0.00 | 0.00 | 68 | 1009.9 |
| 20260506131705 | 18 | 139 | 6.4 | 20.9 | 0.00 | 0.00 | 0.00 | 68 | 1009.9 |
| 20260506131606 | 18 | 197 | 6.4 | 20.9 | 0.00 | 0.00 | 0.00 | 69 | 1010.0 |
| 20260506131406 | 18 | 197 | 8.0 | 20.9 | 0.00 | 0.00 | 0.00 | 70 | 1009.9 |
| 20260506131306 | 18 | 9 | 8.0 | 20.9 | 0.00 | 0.00 | 0.00 | 70 | 1010.0 |
| 20260506131008 | 18 | 108 | 8.0 | 20.9 | 0.00 | 0.00 | 0.00 | 69 | 1010.0 |
| 20260506130906 | 18 | 56 | 8.0 | 20.9 | 0.00 | 0.00 | 0.00 | 70 | 1010.1 |
| 20260506130806 | 18 | 96 | 8.0 | 20.9 | 0.00 | 0.00 | 0.00 | 69 | 1010.1 |
| 20260506130607 | 18 | 106 | 8.0 | 20.9 | 0.00 | 0.00 | 0.00 | 68 | 1010.1 |
| 20260506130508 | 19 | 62 | 6.4 | 20.9 | 0.00 | 0.00 | 0.00 | 69 | 1010.2 |
| 20260506130405 | 19 | 33 | 6.4 | 16.1 | 0.00 | 0.00 | 0.00 | 68 | 1010.1 |
| 20260506130305 | 19 | 35 | 6.4 | 16.1 | 0.00 | 0.00 | 0.00 | 68 | 1010.1 |
| 20260506130205 | 19 | 102 | 6.4 | 19.3 | 0.00 | 0.00 | 0.00 | 68 | 1010.1 |
| 20260506130106 | 19 | 19 | 6.4 | 19.3 | 0.00 | 0.00 | 0.00 | 68 | 1010.2 |
| 20260506130010 | 19 | 281 | 6.4 | 19.3 | 0.00 | 0.00 | 0.00 | 68 | 1010.2 |
| 20260506125907 | 19 | 203 | 6.4 | 19.3 | 0.00 | 0.00 | 0.00 | 68 | 1010.2 |
| 20260506125806 | 19 | 312 | 6.4 | 19.3 | 0.00 | 0.00 | 0.00 | 68 | 1010.2 |
| 20260506125606 | 19 | 77 | 6.4 | 19.3 | 0.00 | 0.00 | 0.00 | 67 | 1010.3 |
| 20260506125509 | 19 | 293 | 6.4 | 19.3 | 0.00 | 0.00 | 0.00 | 66 | 1010.3 |
| 20260506125407 | 19 | 161 | 6.4 | 19.3 | 0.00 | 0.00 | 0.00 | 66 | 1010.3 |
| 20260506125306 | 19 | 39 | 4.8 | 19.3 | 0.00 | 0.00 | 0.00 | 66 | 1010.3 |
| 20260506125206 | 19 | 330 | 4.8 | 19.3 | 0.00 | 0.00 | 0.00 | 66 | 1010.3 |
| 20260506124907 | 19 | 107 | 4.8 | 16.1 | 0.00 | 0.00 | 0.00 | 67 | 1010.4 |
| 20260506124806 | 19 | 66 | 4.8 | 16.1 | 0.00 | 0.00 | 0.00 | 67 | 1010.3 |
| 20260506124706 | 19 | 187 | 4.8 | 19.3 | 0.00 | 0.00 | 0.00 | 67 | 1010.3 |
| 20260506124607 | 19 | 64 | 4.8 | 16.1 | 0.00 | 0.00 | 0.00 | 67 | 1010.3 |
| 20260506124509 | 19 | 100 | 4.8 | 16.1 | 0.00 | 0.00 | 0.00 | 67 | 1010.3 |
| 20260506124407 | 19 | 29 | 4.8 | 16.1 | 0.00 | 0.00 | 0.00 | 67 | 1010.3 |
| 20260506124306 | 19 | 58 | 6.4 | 20.9 | 0.00 | 0.00 | 0.00 | 66 | 1010.3 |
| 20260506124205 | 19 | 67 | 6.4 | 20.9 | 0.00 | 0.00 | 0.00 | 67 | 1010.4 |
| 20260506124105 | 19 | 37 | 4.8 | 20.9 | 0.00 | 0.00 | 0.00 | 67 | 1010.4 |
| 20260506124008 | 19 | 358 | 6.4 | 20.9 | 0.00 | 0.00 | 0.00 | 67 | 1010.4 |
| 20260506123807 | 18 | 69 | 6.4 | 20.9 | 0.00 | 0.00 | 0.00 | 67 | 1010.3 |
| 20260506123707 | 18 | 91 | 6.4 | 22.5 | 0.00 | 0.00 | 0.00 | 67 | 1010.3 |
| 20260506123607 | 18 | 54 | 6.4 | 22.5 | 0.00 | 0.00 | 0.00 | 67 | 1010.3 |
| 20260506123508 | 18 | 98 | 6.4 | 22.5 | 0.00 | 0.00 | 0.00 | 67 | 1010.3 |
| 20260506123406 | 18 | 150 | 6.4 | 22.5 | 0.00 | 0.00 | 0.00 | 67 | 1010.3 |
| 20260506123305 | 18 | 40 | 6.4 | 22.5 | 0.00 | 0.00 | 0.00 | 67 | 1010.4 |
| 20260506123106 | 18 | 58 | 6.4 | 22.5 | 0.00 | 0.00 | 0.00 | 67 | 1010.4 |
| 20260506123009 | 18 | 122 | 6.4 | 22.5 | 0.00 | 0.00 | 0.00 | 67 | 1010.4 |
| 20260506122905 | 18 | 96 | 6.4 | 22.5 | 0.00 | 0.00 | 0.00 | 66 | 1010.4 |
| 20260506122805 | 18 | 105 | 6.4 | 22.5 | 0.00 | 0.00 | 0.00 | 66 | 1010.4 |
| 20260506122708 | 18 | 98 | 6.4 | 19.3 | 0.00 | 0.00 | 0.00 | 66 | 1010.4 |
| 20260506122607 | 18 | 60 | 6.4 | 19.3 | 0.00 | 0.00 | 0.00 | 66 | 1010.4 |
| 20260506122508 | 18 | 5 | 6.4 | 19.3 | 0.00 | 0.00 | 0.00 | 65 | 1010.4 |
| 20260506122406 | 19 | 110 | 6.4 | 19.3 | 0.00 | 0.00 | 0.00 | 66 | 1010.4 |
| 20260506122307 | 18 | 87 | 6.4 | 17.7 | 0.00 | 0.00 | 0.00 | 66 | 1010.4 |
| 20260506122106 | 18 | 101 | 6.4 | 17.7 | 0.00 | 0.00 | 0.00 | 65 | 1010.4 |
| 20260506122009 | 18 | 40 | 8.0 | 16.1 | 0.00 | 0.00 | 0.00 | 66 | 1010.4 |
| 20260506121806 | 18 | 16 | 9.7 | 20.9 | 0.00 | 0.00 | 0.00 | 66 | 1010.5 |
| 20260506121705 | 18 | 216 | 9.7 | 20.9 | 0.00 | 0.00 | 0.00 | 67 | 1010.5 |
| 20260506121605 | 18 | 4 | 9.7 | 24.1 | 0.00 | 0.00 | 0.00 | 67 | 1010.4 |
| 20260506121302 | 18 | 6 | 11.3 | 24.1 | 0.00 | 0.00 | 0.00 | 67 | 1010.5 |
| 20260506121203 | 18 | 69 | 12.9 | 24.1 | 0.00 | 0.00 | 0.00 | 67 | 1010.5 |
| 20260506121004 | 18 | 71 | 11.3 | 24.1 | 0.00 | 0.00 | 0.00 | 67 | 1010.5 |
| 20260506120903 | 18 | 87 | 11.3 | 24.1 | 0.00 | 0.00 | 0.00 | 67 | 1010.5 |
| 20260506120802 | 18 | 110 | 11.3 | 24.1 | 0.00 | 0.00 | 0.00 | 67 | 1010.6 |
| 20260506120601 | 18 | 94 | 9.7 | 24.1 | 0.00 | 0.00 | 0.00 | 66 | 1010.5 |
| 20260506120518 | 18 | 110 | 9.7 | 24.1 | 0.00 | 0.00 | 0.00 | 66 | 1010.6 |
| 20260506120416 | 18 | 78 | 9.7 | 24.1 | 0.00 | 0.00 | 0.00 | 64 | 1010.6 |
| 20260506120317 | 18 | 110 | 8.0 | 24.1 | 0.00 | 0.00 | 0.00 | 63 | 1010.5 |
| 20260506120217 | 19 | 120 | 6.4 | 24.1 | 0.00 | 0.00 | 0.00 | 63 | 1010.6 |
| 20260506120106 | 19 | 112 | 6.4 | 24.1 | 0.00 | 0.00 | 0.00 | 63 | 1010.6 |
| 20260506115807 | 19 | 139 | 4.8 | 14.5 | 0.00 | 0.00 | 0.00 | 62 | 1010.6 |
| 20260506115606 | 19 | 291 | 4.8 | 14.5 | 0.00 | 0.00 | 0.00 | 62 | 1010.5 |
| 20260506115509 | 19 | 85 | 4.8 | 14.5 | 0.00 | 0.00 | 0.00 | 62 | 1010.6 |
| 20260506115406 | 19 | 142 | 6.4 | 14.5 | 0.00 | 0.00 | 0.00 | 63 | 1010.7 |
| 20260506115307 | 19 | 156 | 4.8 | 17.7 | 0.00 | 0.00 | 0.00 | 63 | 1010.6 |
| 20260506115205 | 19 | 71 | 4.8 | 17.7 | 0.00 | 0.00 | 0.00 | 63 | 1010.7 |
| 20260506115105 | 18 | 55 | 4.8 | 17.7 | 0.00 | 0.00 | 0.00 | 63 | 1010.6 |
| 20260506115009 | 19 | 49 | 4.8 | 17.7 | 0.00 | 0.00 | 0.00 | 63 | 1010.6 |
| 20260506114806 | 18 | 123 | 4.8 | 17.7 | 0.00 | 0.00 | 0.00 | 65 | 1010.6 |
| 20260506114608 | 18 | 175 | 6.4 | 17.7 | 0.00 | 0.00 | 0.00 | 65 | 1010.7 |
| 20260506114508 | 18 | 119 | 6.4 | 17.7 | 0.00 | 0.00 | 0.00 | 66 | 1010.6 |
| 20260506114307 | 18 | 87 | 6.4 | 20.9 | 0.00 | 0.00 | 0.00 | 67 | 1010.6 |
| 20260506114206 | 18 | 54 | 6.4 | 20.9 | 0.00 | 0.00 | 0.00 | 67 | 1010.7 |
| 20260506114107 | 18 | 342 | 8.0 | 20.9 | 0.00 | 0.00 | 0.00 | 68 | 1010.7 |
| 20260506113906 | 18 | 48 | 9.7 | 20.9 | 0.00 | 0.00 | 0.00 | 68 | 1010.7 |
| 20260506113807 | 18 | 83 | 9.7 | 20.9 | 0.00 | 0.00 | 0.00 | 68 | 1010.7 |
| 20260506113707 | 18 | 55 | 9.7 | 20.9 | 0.00 | 0.00 | 0.00 | 68 | 1010.7 |
| 20260506113605 | 18 | 37 | 9.7 | 20.9 | 0.00 | 0.00 | 0.00 | 67 | 1010.7 |
| 20260506113507 | 18 | 52 | 9.7 | 20.9 | 0.00 | 0.00 | 0.00 | 68 | 1010.7 |
| 20260506113407 | 18 | 63 | 9.7 | 20.9 | 0.00 | 0.00 | 0.00 | 68 | 1010.8 |
| 20260506113306 | 18 | 31 | 9.7 | 20.9 | 0.00 | 0.00 | 0.00 | 69 | 1010.8 |
| 20260506113207 | 18 | 68 | 11.3 | 20.9 | 0.00 | 0.00 | 0.00 | 69 | 1010.7 |
| 20260506113107 | 18 | 109 | 11.3 | 20.9 | 0.00 | 0.00 | 0.00 | 69 | 1010.7 |
| 20260506113009 | 18 | 93 | 11.3 | 20.9 | 0.00 | 0.00 | 0.00 | 70 | 1010.7 |
| 20260506112907 | 18 | 44 | 11.3 | 20.9 | 0.00 | 0.00 | 0.00 | 70 | 1010.8 |
| 20260506112806 | 18 | 35 | 12.9 | 20.9 | 0.00 | 0.00 | 0.00 | 69 | 1010.7 |
| 20260506112706 | 18 | 64 | 12.9 | 20.9 | 0.00 | 0.00 | 0.00 | 69 | 1010.8 |
| 20260506112606 | 18 | 55 | 12.9 | 20.9 | 0.00 | 0.00 | 0.00 | 69 | 1010.8 |
| 20260506112508 | 18 | 45 | 12.9 | 20.9 | 0.00 | 0.00 | 0.00 | 69 | 1010.9 |
| 20260506112406 | 18 | 67 | 12.9 | 20.9 | 0.00 | 0.00 | 0.00 | 69 | 1010.9 |
| 20260506112306 | 18 | 62 | 12.9 | 20.9 | 0.00 | 0.00 | 0.00 | 68 | 1010.9 |
| 20260506112106 | 18 | 62 | 12.9 | 20.9 | 0.00 | 0.00 | 0.00 | 67 | 1010.9 |
| 20260506112010 | 18 | 58 | 12.9 | 20.9 | 0.00 | 0.00 | 0.00 | 67 | 1010.9 |
| 20260506111905 | 18 | 60 | 14.5 | 20.9 | 0.00 | 0.00 | 0.00 | 68 | 1010.9 |
| 20260506111805 | 18 | 52 | 14.5 | 20.9 | 0.00 | 0.00 | 0.00 | 68 | 1010.8 |
| 20260506111707 | 18 | 61 | 14.5 | 20.9 | 0.00 | 0.00 | 0.00 | 68 | 1010.9 |
| 20260506111607 | 18 | 87 | 14.5 | 20.9 | 0.00 | 0.00 | 0.00 | 67 | 1010.9 |
| 20260506111508 | 18 | 75 | 14.5 | 20.9 | 0.00 | 0.00 | 0.00 | 68 | 1010.9 |
| 20260506111405 | 18 | 77 | 14.5 | 20.9 | 0.00 | 0.00 | 0.00 | 68 | 1010.9 |
| 20260506111305 | 18 | 52 | 14.5 | 24.1 | 0.00 | 0.00 | 0.00 | 68 | 1010.9 |
| 20260506111205 | 18 | 76 | 14.5 | 24.1 | 0.00 | 0.00 | 0.00 | 68 | 1010.9 |
| 20260506111008 | 18 | 58 | 12.9 | 24.1 | 0.00 | 0.00 | 0.00 | 68 | 1010.9 |
| 20260506110906 | 18 | 66 | 12.9 | 24.1 | 0.00 | 0.00 | 0.00 | 68 | 1010.9 |
| 20260506110805 | 18 | 65 | 12.9 | 24.1 | 0.00 | 0.00 | 0.00 | 69 | 1010.9 |
| 20260506110705 | 18 | 74 | 12.9 | 24.1 | 0.00 | 0.00 | 0.00 | 69 | 1010.9 |
| 20260506110606 | 18 | 58 | 12.9 | 24.1 | 0.00 | 0.00 | 0.00 | 70 | 1010.8 |
| 20260506110508 | 18 | 79 | 12.9 | 19.3 | 0.00 | 0.00 | 0.00 | 69 | 1010.9 |
| 20260506110305 | 18 | 77 | 12.9 | 19.3 | 0.00 | 0.00 | 0.00 | 69 | 1010.9 |
| 20260506110207 | 18 | 75 | 12.9 | 19.3 | 0.00 | 0.00 | 0.00 | 69 | 1010.9 |
| 20260506110107 | 18 | 67 | 11.3 | 19.3 | 0.00 | 0.00 | 0.00 | 70 | 1010.9 |
| 20260506110013 | 18 | 62 | 11.3 | 16.1 | 0.00 | 0.00 | 0.00 | 69 | 1010.9 |
| 20260506105906 | 18 | 57 | 11.3 | 17.7 | 0.00 | 0.00 | 0.00 | 69 | 1010.9 |
| 20260506105806 | 18 | 58 | 11.3 | 17.7 | 0.00 | 0.00 | 0.00 | 69 | 1011.0 |
| 20260506105707 | 18 | 66 | 11.3 | 17.7 | 0.00 | 0.00 | 0.00 | 69 | 1011.0 |
| 20260506105607 | 18 | 65 | 11.3 | 17.7 | 0.00 | 0.00 | 0.00 | 69 | 1011.1 |
| 20260506105508 | 18 | 101 | 11.3 | 17.7 | 0.00 | 0.00 | 0.00 | 68 | 1011.0 |
| 20260506105306 | 18 | 50 | 11.3 | 17.7 | 0.00 | 0.00 | 0.00 | 67 | 1011.0 |
| 20260506105207 | 18 | 60 | 11.3 | 17.7 | 0.00 | 0.00 | 0.00 | 67 | 1011.0 |
| 20260506105105 | 18 | 64 | 9.7 | 17.7 | 0.00 | 0.00 | 0.00 | 67 | 1011.1 |
| 20260506105009 | 18 | 64 | 9.7 | 17.7 | 0.00 | 0.00 | 0.00 | 67 | 1011.0 |
| 20260506104907 | 18 | 42 | 9.7 | 17.7 | 0.00 | 0.00 | 0.00 | 67 | 1011.0 |
| 20260506104806 | 18 | 70 | 9.7 | 17.7 | 0.00 | 0.00 | 0.00 | 66 | 1011.0 |
| 20260506104705 | 18 | 76 | 9.7 | 17.7 | 0.00 | 0.00 | 0.00 | 66 | 1011.1 |
| 20260506104606 | 18 | 86 | 9.7 | 17.7 | 0.00 | 0.00 | 0.00 | 66 | 1011.0 |
| 20260506104407 | 18 | 68 | 9.7 | 17.7 | 0.00 | 0.00 | 0.00 | 66 | 1011.0 |
| 20260506104306 | 18 | 90 | 9.7 | 17.7 | 0.00 | 0.00 | 0.00 | 66 | 1011.0 |
| 20260506104206 | 18 | 64 | 9.7 | 17.7 | 0.00 | 0.00 | 0.00 | 66 | 1011.0 |
| 20260506104107 | 18 | 83 | 9.7 | 17.7 | 0.00 | 0.00 | 0.00 | 66 | 1011.1 |
| 20260506104008 | 18 | 66 | 9.7 | 16.1 | 0.00 | 0.00 | 0.00 | 66 | 1011.1 |
| 20260506103906 | 18 | 82 | 9.7 | 16.1 | 0.00 | 0.00 | 0.00 | 65 | 1011.0 |
| 20260506103807 | 18 | 62 | 9.7 | 16.1 | 0.00 | 0.00 | 0.00 | 65 | 1011.0 |
| 20260506103705 | 18 | 62 | 8.0 | 16.1 | 0.00 | 0.00 | 0.00 | 65 | 1011.0 |
| 20260506103509 | 18 | 68 | 8.0 | 16.1 | 0.00 | 0.00 | 0.00 | 67 | 1011.0 |
| 20260506103407 | 18 | 91 | 8.0 | 16.1 | 0.00 | 0.00 | 0.00 | 66 | 1011.0 |
| 20260506103307 | 18 | 64 | 6.4 | 16.1 | 0.00 | 0.00 | 0.00 | 66 | 1011.0 |
| 20260506103106 | 18 | 78 | 6.4 | 12.9 | 0.00 | 0.00 | 0.00 | 68 | 1011.1 |
| 20260506102906 | 18 | 87 | 6.4 | 12.9 | 0.00 | 0.00 | 0.00 | 69 | 1011.1 |
| 20260506102806 | 18 | 85 | 6.4 | 12.9 | 0.00 | 0.00 | 0.00 | 69 | 1011.1 |
| 20260506102708 | 18 | 62 | 6.4 | 12.9 | 0.00 | 0.00 | 0.00 | 69 | 1011.1 |
| 20260506102607 | 18 | 68 | 6.4 | 12.9 | 0.00 | 0.00 | 0.00 | 69 | 1011.1 |
| 20260506102508 | 18 | 72 | 6.4 | 12.9 | 0.00 | 0.00 | 0.00 | 69 | 1011.1 |
| 20260506102406 | 18 | 53 | 6.4 | 12.9 | 0.00 | 0.00 | 0.00 | 69 | 1011.1 |
| 20260506102306 | 18 | 70 | 6.4 | 12.9 | 0.00 | 0.00 | 0.00 | 69 | 1011.1 |
| 20260506102206 | 18 | 107 | 6.4 | 12.9 | 0.00 | 0.00 | 0.00 | 69 | 1011.2 |
| 20260506102107 | 18 | 64 | 6.4 | 12.9 | 0.00 | 0.00 | 0.00 | 70 | 1011.1 |
| 20260506101708 | 18 | 70 | 8.0 | 12.9 | 0.00 | 0.00 | 0.00 | 69 | 1011.2 |
| 20260506101606 | 18 | 79 | 8.0 | 16.1 | 0.00 | 0.00 | 0.00 | 69 | 1011.1 |
| 20260506101509 | 18 | 77 | 6.4 | 16.1 | 0.00 | 0.00 | 0.00 | 69 | 1011.2 |
| 20260506101308 | 18 | 74 | 6.4 | 16.1 | 0.00 | 0.00 | 0.00 | 69 | 1011.1 |
| 20260506101206 | 18 | 74 | 6.4 | 16.1 | 0.00 | 0.00 | 0.00 | 69 | 1011.2 |
| 20260506101106 | 18 | 58 | 6.4 | 16.1 | 0.00 | 0.00 | 0.00 | 69 | 1011.2 |
| 20260506101009 | 18 | 64 | 6.4 | 16.1 | 0.00 | 0.00 | 0.00 | 69 | 1011.2 |
| 20260506100905 | 18 | 63 | 6.4 | 16.1 | 0.00 | 0.00 | 0.00 | 68 | 1011.2 |
| 20260506100807 | 18 | 75 | 6.4 | 16.1 | 0.00 | 0.00 | 0.00 | 68 | 1011.2 |
| 20260506100705 | 18 | 81 | 6.4 | 16.1 | 0.00 | 0.00 | 0.00 | 69 | 1011.2 |
| 20260506100606 | 18 | 75 | 6.4 | 12.9 | 0.00 | 0.00 | 0.00 | 68 | 1011.3 |
| 20260506100510 | 18 | 316 | 6.4 | 14.5 | 0.00 | 0.00 | 0.00 | 68 | 1011.2 |
| 20260506100406 | 18 | 87 | 6.4 | 14.5 | 0.00 | 0.00 | 0.00 | 68 | 1011.2 |
| 20260506100307 | 18 | 112 | 6.4 | 14.5 | 0.00 | 0.00 | 0.00 | 68 | 1011.2 |
| 20260506100007 | 18 | 76 | 6.4 | 14.5 | 0.00 | 0.00 | 0.00 | 68 | 1011.2 |
| 20260506095907 | 18 | 53 | 4.8 | 14.5 | 0.00 | 0.00 | 0.00 | 67 | 1011.3 |
| 20260506095805 | 18 | 75 | 4.8 | 14.5 | 0.00 | 0.00 | 0.00 | 67 | 1011.2 |
| 20260506095706 | 18 | 68 | 4.8 | 14.5 | 0.00 | 0.00 | 0.00 | 67 | 1011.2 |
| 20260506095605 | 18 | 78 | 3.2 | 14.5 | 0.00 | 0.00 | 0.00 | 68 | 1011.2 |
| 20260506095507 | 18 | 59 | 4.8 | 11.3 | 0.00 | 0.00 | 0.00 | 68 | 1011.1 |
| 20260506095405 | 18 | 20 | 4.8 | 12.9 | 0.00 | 0.00 | 0.00 | 68 | 1011.1 |
| 20260506095306 | 18 | 75 | 4.8 | 12.9 | 0.00 | 0.00 | 0.00 | 68 | 1011.2 |
| 20260506095206 | 18 | 53 | 4.8 | 12.9 | 0.00 | 0.00 | 0.00 | 68 | 1011.1 |
| 20260506095104 | 18 | 102 | 4.8 | 12.9 | 0.00 | 0.00 | 0.00 | 67 | 1011.2 |
| 20260506095008 | 18 | 133 | 4.8 | 12.9 | 0.00 | 0.00 | 0.00 | 67 | 1011.2 |
| 20260506094905 | 18 | 66 | 4.8 | 12.9 | 0.00 | 0.00 | 0.00 | 67 | 1011.2 |
| 20260506094705 | 18 | 73 | 4.8 | 12.9 | 0.00 | 0.00 | 0.00 | 67 | 1011.2 |
| 20260506094605 | 18 | 44 | 4.8 | 12.9 | 0.00 | 0.00 | 0.00 | 66 | 1011.2 |
| 20260506094508 | 18 | 99 | 4.8 | 11.3 | 0.00 | 0.00 | 0.00 | 67 | 1011.2 |
| 20260506094405 | 18 | 73 | 3.2 | 9.7 | 0.00 | 0.00 | 0.00 | 67 | 1011.2 |
| 20260506094204 | 18 | 102 | 3.2 | 9.7 | 0.00 | 0.00 | 0.00 | 66 | 1011.1 |
| 20260506094106 | 18 | 44 | 3.2 | 9.7 | 0.00 | 0.00 | 0.00 | 66 | 1011.2 |
| 20260506094007 | 18 | 60 | 4.8 | 9.7 | 0.00 | 0.00 | 0.00 | 66 | 1011.2 |
| 20260506093804 | 18 | 60 | 4.8 | 9.7 | 0.00 | 0.00 | 0.00 | 65 | 1011.2 |
| 20260506093704 | 18 | 49 | 3.2 | 11.3 | 0.00 | 0.00 | 0.00 | 66 | 1011.2 |
| 20260506093607 | 18 | 13 | 3.2 | 11.3 | 0.00 | 0.00 | 0.00 | 66 | 1011.2 |
| 20260506093507 | 18 | 74 | 4.8 | 11.3 | 0.00 | 0.00 | 0.00 | 66 | 1011.1 |
| 20260506093405 | 18 | 114 | 4.8 | 11.3 | 0.00 | 0.00 | 0.00 | 66 | 1011.1 |
| 20260506093205 | 18 | 116 | 4.8 | 11.3 | 0.00 | 0.00 | 0.00 | 65 | 1011.1 |
| 20260506093008 | 18 | 65 | 4.8 | 12.9 | 0.00 | 0.00 | 0.00 | 66 | 1011.1 |
| 20260506092905 | 18 | 73 | 4.8 | 12.9 | 0.00 | 0.00 | 0.00 | 66 | 1011.0 |
| 20260506092704 | 18 | 67 | 3.2 | 12.9 | 0.00 | 0.00 | 0.00 | 66 | 1011.0 |
| 20260506092607 | 18 | 4 | 4.8 | 12.9 | 0.00 | 0.00 | 0.00 | 66 | 1011.0 |
| 20260506092506 | 18 | 31 | 3.2 | 12.9 | 0.00 | 0.00 | 0.00 | 66 | 1011.0 |
| 20260506092404 | 18 | 68 | 3.2 | 12.9 | 0.00 | 0.00 | 0.00 | 66 | 1011.0 |
| 20260506092306 | 18 | 48 | 3.2 | 12.9 | 0.00 | 0.00 | 0.00 | 66 | 1011.0 |
| 20260506092207 | 18 | 99 | 3.2 | 12.9 | 0.00 | 0.00 | 0.00 | 67 | 1011.0 |
| 20260506092106 | 18 | 62 | 3.2 | 11.3 | 0.00 | 0.00 | 0.00 | 67 | 1011.0 |
| 20260506092008 | 18 | 358 | 3.2 | 11.3 | 0.00 | 0.00 | 0.00 | 67 | 1010.9 |
| 20260506091906 | 18 | 98 | 3.2 | 11.3 | 0.00 | 0.00 | 0.00 | 68 | 1010.9 |
| 20260506091805 | 18 | 132 | 3.2 | 11.3 | 0.00 | 0.00 | 0.00 | 68 | 1010.9 |
| 20260506091706 | 18 | 58 | 4.8 | 11.3 | 0.00 | 0.00 | 0.00 | 68 | 1010.9 |
| 20260506091306 | 18 | 18 | 4.8 | 14.5 | 0.00 | 0.00 | 0.00 | 68 | 1010.9 |
| 20260506091204 | 18 | 91 | 3.2 | 14.5 | 0.00 | 0.00 | 0.00 | 68 | 1010.8 |
| 20260506091105 | 18 | 68 | 3.2 | 14.5 | 0.00 | 0.00 | 0.00 | 68 | 1010.9 |
| 20260506091007 | 18 | 100 | 3.2 | 14.5 | 0.00 | 0.00 | 0.00 | 68 | 1010.9 |
| 20260506090906 | 18 | 51 | 4.8 | 14.5 | 0.00 | 0.00 | 0.00 | 68 | 1010.9 |
| 20260506090507 | 18 | 63 | 4.8 | 14.5 | 0.00 | 0.00 | 0.00 | 69 | 1010.8 |
| 20260506090404 | 18 | 164 | 4.8 | 12.9 | 0.00 | 0.00 | 0.00 | 69 | 1010.8 |
| 20260506090304 | 18 | 226 | 4.8 | 12.9 | 0.00 | 0.00 | 0.00 | 69 | 1010.8 |
| 20260506090205 | 18 | 14 | 6.4 | 12.9 | 0.00 | 0.00 | 0.00 | 69 | 1010.8 |
| 20260506090105 | 18 | 193 | 6.4 | 12.9 | 0.00 | 0.00 | 0.00 | 69 | 1010.8 |
| 20260506090007 | 18 | 10 | 6.4 | 12.9 | 0.00 | 0.00 | 0.00 | 69 | 1010.7 |
| 20260506085906 | 18 | 41 | 4.8 | 12.9 | 0.00 | 0.00 | 0.00 | 69 | 1010.9 |
| 20260506085805 | 18 | 60 | 6.4 | 12.9 | 0.00 | 0.00 | 0.00 | 69 | 1010.8 |
| 20260506085705 | 18 | 55 | 6.4 | 12.9 | 0.00 | 0.00 | 0.00 | 69 | 1010.8 |
| 20260506085604 | 18 | 77 | 6.4 | 14.5 | 0.00 | 0.00 | 0.00 | 68 | 1010.8 |
| 20260506085507 | 18 | 64 | 6.4 | 14.5 | 0.00 | 0.00 | 0.00 | 69 | 1010.8 |
| 20260506085405 | 18 | 56 | 4.8 | 14.5 | 0.00 | 0.00 | 0.00 | 69 | 1010.7 |
| 20260506085306 | 18 | 58 | 4.8 | 14.5 | 0.00 | 0.00 | 0.00 | 69 | 1010.8 |
| 20260506085205 | 18 | 77 | 4.8 | 14.5 | 0.00 | 0.00 | 0.00 | 69 | 1010.8 |
| 20260506085105 | 18 | 65 | 4.8 | 14.5 | 0.00 | 0.00 | 0.00 | 69 | 1010.7 |
| 20260506085007 | 18 | 66 | 6.4 | 14.5 | 0.00 | 0.00 | 0.00 | 69 | 1010.8 |
| 20260506084905 | 18 | 31 | 6.4 | 14.5 | 0.00 | 0.00 | 0.00 | 68 | 1010.8 |
| 20260506084704 | 18 | 74 | 4.8 | 14.5 | 0.00 | 0.00 | 0.00 | 68 | 1010.7 |
| 20260506084605 | 18 | 54 | 4.8 | 11.3 | 0.00 | 0.00 | 0.00 | 69 | 1010.9 |
| 20260506084507 | 18 | 52 | 4.8 | 11.3 | 0.00 | 0.00 | 0.00 | 69 | 1010.8 |
| 20260506084304 | 18 | 43 | 4.8 | 12.9 | 0.00 | 0.00 | 0.00 | 68 | 1010.8 |
| 20260506084204 | 18 | 30 | 4.8 | 12.9 | 0.00 | 0.00 | 0.00 | 68 | 1010.8 |
| 20260506084105 | 18 | 64 | 6.4 | 12.9 | 0.00 | 0.00 | 0.00 | 68 | 1010.8 |
| 20260506084007 | 18 | 62 | 4.8 | 12.9 | 0.00 | 0.00 | 0.00 | 68 | 1010.9 |
| 20260506083908 | 18 | 64 | 4.8 | 12.9 | 0.00 | 0.00 | 0.00 | 68 | 1010.9 |
| 20260506083704 | 18 | 47 | 4.8 | 12.9 | 0.00 | 0.00 | 0.00 | 69 | 1010.9 |
| 20260506083607 | 18 | 47 | 4.8 | 16.1 | 0.00 | 0.00 | 0.00 | 68 | 1010.8 |
| 20260506083508 | 18 | 63 | 4.8 | 16.1 | 0.00 | 0.00 | 0.00 | 68 | 1010.8 |
| 20260506083305 | 18 | 57 | 4.8 | 16.1 | 0.00 | 0.00 | 0.00 | 68 | 1011.0 |
| 20260506083204 | 18 | 59 | 4.8 | 16.1 | 0.00 | 0.00 | 0.00 | 68 | 1010.9 |
| 20260506083106 | 18 | 52 | 4.8 | 16.1 | 0.00 | 0.00 | 0.00 | 68 | 1010.9 |
| 20260506082807 | 18 | 16 | 4.8 | 16.1 | 0.00 | 0.00 | 0.00 | 67 | 1010.9 |
| 20260506082706 | 18 | 64 | 4.8 | 16.1 | 0.00 | 0.00 | 0.00 | 68 | 1010.8 |
| 20260506082605 | 18 | 261 | 6.4 | 12.9 | 0.00 | 0.00 | 0.00 | 68 | 1010.9 |
| 20260506082405 | 18 | 91 | 6.4 | 12.9 | 0.00 | 0.00 | 0.00 | 67 | 1010.9 |
| 20260506082305 | 18 | 71 | 6.4 | 12.9 | 0.00 | 0.00 | 0.00 | 67 | 1010.9 |
| 20260506082206 | 18 | 58 | 6.4 | 12.9 | 0.00 | 0.00 | 0.00 | 67 | 1010.9 |
| 20260506082105 | 18 | 55 | 4.8 | 12.9 | 0.00 | 0.00 | 0.00 | 67 | 1010.9 |
| 20260506082007 | 18 | 37 | 4.8 | 12.9 | 0.00 | 0.00 | 0.00 | 67 | 1010.9 |
| 20260506081906 | 18 | 89 | 4.8 | 12.9 | 0.00 | 0.00 | 0.00 | 67 | 1010.9 |
| 20260506081808 | 18 | 44 | 4.8 | 12.9 | 0.00 | 0.00 | 0.00 | 66 | 1010.9 |
| 20260506081706 | 18 | 39 | 4.8 | 12.9 | 0.00 | 0.00 | 0.00 | 66 | 1010.8 |
| 20260506081606 | 18 | 57 | 4.8 | 12.9 | 0.00 | 0.00 | 0.00 | 66 | 1010.8 |
| 20260506081508 | 18 | 55 | 4.8 | 11.3 | 0.00 | 0.00 | 0.00 | 66 | 1010.8 |
| 20260506081404 | 18 | 100 | 3.2 | 11.3 | 0.00 | 0.00 | 0.00 | 66 | 1010.7 |
| 20260506081307 | 18 | 116 | 3.2 | 11.3 | 0.00 | 0.00 | 0.00 | 66 | 1010.7 |
| 20260506081207 | 18 | 74 | 3.2 | 11.3 | 0.00 | 0.00 | 0.00 | 66 | 1010.8 |
| 20260506081106 | 18 | 344 | 3.2 | 11.3 | 0.00 | 0.00 | 0.00 | 66 | 1010.7 |
| 20260506081008 | 18 | 129 | 3.2 | 11.3 | 0.00 | 0.00 | 0.00 | 66 | 1010.8 |
| 20260506080906 | 18 | 120 | 3.2 | 11.3 | 0.00 | 0.00 | 0.00 | 66 | 1010.7 |
| 20260506080806 | 18 | 94 | 3.2 | 11.3 | 0.00 | 0.00 | 0.00 | 65 | 1010.7 |
| 20260506080607 | 18 | 81 | 3.2 | 9.7 | 0.00 | 0.00 | 0.00 | 66 | 1010.7 |
| 20260506080507 | 18 | 81 | 3.2 | 9.7 | 0.00 | 0.00 | 0.00 | 67 | 1010.7 |
| 20260506080406 | 18 | 81 | 3.2 | 9.7 | 0.00 | 0.00 | 0.00 | 67 | 1010.6 |
| 20260506080206 | 18 | 116 | 3.2 | 9.7 | 0.00 | 0.00 | 0.00 | 67 | 1010.6 |
| 20260506073507 | 18 | 59 | 3.2 | 11.3 | 0.00 | 0.00 | 0.00 | 67 | 1010.7 |
| 20260506073405 | 18 | 62 | 3.2 | 9.7 | 0.00 | 0.00 | 0.00 | 67 | 1010.7 |
| 20260506073306 | 18 | 66 | 1.6 | 11.3 | 0.00 | 0.00 | 0.00 | 67 | 1010.6 |
| 20260506073204 | 18 | 100 | 1.6 | 6.4 | 0.00 | 0.00 | 0.00 | 67 | 1010.6 |
| 20260506073104 | 18 | 89 | 1.6 | 6.4 | 0.00 | 0.00 | 0.00 | 67 | 1010.6 |
| 20260506073007 | 18 | 66 | 1.6 | 6.4 | 0.00 | 0.00 | 0.00 | 67 | 1010.7 |
| 20260506072906 | 18 | 48 | 3.2 | 6.4 | 0.00 | 0.00 | 0.00 | 68 | 1010.7 |
| 20260506072706 | 18 | 30 | 1.6 | 9.7 | 0.00 | 0.00 | 0.00 | 68 | 1010.6 |
| 20260506072507 | 18 | 291 | 3.2 | 9.7 | 0.00 | 0.00 | 0.00 | 68 | 1010.6 |
| 20260506072405 | 18 | 291 | 3.2 | 9.7 | 0.00 | 0.00 | 0.00 | 67 | 1010.7 |
| 20260506072306 | 18 | 291 | 3.2 | 9.7 | 0.00 | 0.00 | 0.00 | 67 | 1010.7 |
| 20260506072206 | 18 | 294 | 3.2 | 9.7 | 0.00 | 0.00 | 0.00 | 67 | 1010.7 |
| 20260506072105 | 18 | 53 | 3.2 | 9.7 | 0.00 | 0.00 | 0.00 | 67 | 1010.7 |
| 20260506071804 | 18 | 360 | 3.2 | 8.0 | 0.00 | 0.00 | 0.00 | 68 | 1010.6 |
| 20260506071705 | 18 | 39 | 3.2 | 8.0 | 0.00 | 0.00 | 0.00 | 68 | 1010.7 |
| 20260506071606 | 18 | 46 | 1.6 | 8.0 | 0.00 | 0.00 | 0.00 | 68 | 1010.7 |
| 20260506071506 | 18 | 330 | 1.6 | 8.0 | 0.00 | 0.00 | 0.00 | 68 | 1010.7 |
| 20260506071407 | 18 | 28 | 1.6 | 8.0 | 0.00 | 0.00 | 0.00 | 68 | 1010.6 |
| 20260506071305 | 18 | 28 | 1.6 | 8.0 | 0.00 | 0.00 | 0.00 | 68 | 1010.6 |
| 20260506071206 | 18 | 29 | 3.2 | 8.0 | 0.00 | 0.00 | 0.00 | 68 | 1010.7 |
| 20260506071105 | 18 | 43 | 3.2 | 4.8 | 0.00 | 0.00 | 0.00 | 68 | 1010.6 |
| 20260506071008 | 18 | 42 | 1.6 | 8.0 | 0.00 | 0.00 | 0.00 | 68 | 1010.7 |
| 20260506070905 | 18 | 72 | 3.2 | 8.0 | 0.00 | 0.00 | 0.00 | 68 | 1010.7 |
| 20260506070806 | 18 | 72 | 3.2 | 8.0 | 0.00 | 0.00 | 0.00 | 68 | 1010.7 |
| 20260506070707 | 18 | 5 | 3.2 | 8.0 | 0.00 | 0.00 | 0.00 | 68 | 1010.7 |
| 20260506070605 | 18 | 5 | 3.2 | 8.0 | 0.00 | 0.00 | 0.00 | 68 | 1010.7 |
| 20260506070507 | 18 | 5 | 3.2 | 8.0 | 0.00 | 0.00 | 0.00 | 68 | 1010.6 |
| 20260506070406 | 18 | 5 | 3.2 | 8.0 | 0.00 | 0.00 | 0.00 | 68 | 1010.7 |
| 20260506070305 | 18 | 339 | 3.2 | 8.0 | 0.00 | 0.00 | 0.00 | 68 | 1010.6 |
| 20260506070105 | 18 | 42 | 1.6 | 8.0 | 0.00 | 0.00 | 0.00 | 69 | 1010.6 |
| 20260506062507 | 16 | 293 | 0.0 | 3.2 | 0.00 | 0.00 | 0.00 | 72 | 1010.5 |
| 20260506062405 | 16 | 293 | 0.0 | 3.2 | 0.00 | 0.00 | 0.00 | 73 | 1010.5 |
| 20260506062306 | 16 | 293 | 0.0 | 3.2 | 0.00 | 0.00 | 0.00 | 73 | 1010.6 |
| 20260506062206 | 16 | 293 | 0.0 | 3.2 | 0.00 | 0.00 | 0.00 | 73 | 1010.5 |
| 20260506062106 | 16 | 293 | 0.0 | 3.2 | 0.00 | 0.00 | 0.00 | 73 | 1010.6 |
| 20260506061907 | 16 | 293 | 0.0 | 3.2 | 0.00 | 0.00 | 0.00 | 72 | 1010.6 |
| 20260506061805 | 16 | 293 | 0.0 | 3.2 | 0.00 | 0.00 | 0.00 | 73 | 1010.6 |
| 20260506061706 | 16 | 293 | 0.0 | 0.0 | 0.00 | 0.00 | 0.00 | 73 | 1010.6 |
| 20260506061605 | 16 | 293 | 0.0 | 0.0 | 0.00 | 0.00 | 0.00 | 73 | 1010.5 |
| 20260506061306 | 16 | 293 | 0.0 | 0.0 | 0.00 | 0.00 | 0.00 | 73 | 1010.5 |
| 20260506061205 | 16 | 293 | 0.0 | 1.6 | 0.00 | 0.00 | 0.00 | 72 | 1010.4 |
| 20260506061106 | 16 | 252 | 0.0 | 1.6 | 0.00 | 0.00 | 0.00 | 73 | 1010.5 |
| 20260506061008 | 16 | 252 | 0.0 | 1.6 | 0.00 | 0.00 | 0.00 | 73 | 1010.5 |
| 20260506060906 | 16 | 252 | 0.0 | 1.6 | 0.00 | 0.00 | 0.00 | 73 | 1010.5 |
| 20260506060805 | 16 | 252 | 0.0 | 3.2 | 0.00 | 0.00 | 0.00 | 73 | 1010.4 |
| 20260506060706 | 16 | 252 | 0.0 | 3.2 | 0.00 | 0.00 | 0.00 | 73 | 1010.5 |
| 20260506060508 | 16 | 252 | 0.0 | 3.2 | 0.00 | 0.00 | 0.00 | 73 | 1010.4 |
| 20260506060407 | 16 | 252 | 0.0 | 3.2 | 0.00 | 0.00 | 0.00 | 73 | 1010.4 |
| 20260506060306 | 16 | 252 | 0.0 | 3.2 | 0.00 | 0.00 | 0.00 | 73 | 1010.4 |
| 20260506060206 | 16 | 252 | 0.0 | 3.2 | 0.00 | 0.00 | 0.00 | 73 | 1010.5 |
| 20260506051406 | 16 | 310 | 0.0 | 0.0 | 0.00 | 0.00 | 0.00 | 74 | 1010.0 |
| 20260506051306 | 16 | 310 | 0.0 | 0.0 | 0.00 | 0.00 | 0.00 | 73 | 1010.0 |
| 20260506051206 | 16 | 310 | 0.0 | 0.0 | 0.00 | 0.00 | 0.00 | 73 | 1010.0 |
| 20260506051108 | 16 | 310 | 0.0 | 0.0 | 0.00 | 0.00 | 0.00 | 73 | 1010.0 |
| 20260506050906 | 16 | 310 | 0.0 | 0.0 | 0.00 | 0.00 | 0.00 | 73 | 1009.9 |
| 20260506050706 | 16 | 310 | 0.0 | 0.0 | 0.00 | 0.00 | 0.00 | 73 | 1009.9 |
| 20260506050607 | 16 | 310 | 0.0 | 1.6 | 0.00 | 0.00 | 0.00 | 73 | 1010.0 |
| 20260506050509 | 16 | 310 | 0.0 | 1.6 | 0.00 | 0.00 | 0.00 | 73 | 1010.0 |
| 20260506050307 | 16 | 310 | 0.0 | 3.2 | 0.00 | 0.00 | 0.00 | 73 | 1010.0 |
| 20260506050205 | 16 | 310 | 0.0 | 3.2 | 0.00 | 0.00 | 0.00 | 73 | 1009.9 |
| 20260506050116 | 16 | 310 | 0.0 | 3.2 | 0.00 | 0.00 | 0.00 | 73 | 1010.0 |
| 20260506045104 | 16 | 310 | 1.6 | 3.2 | 0.00 | 0.00 | 0.00 | 73 | 1010.0 |
| 20260506044905 | 16 | 310 | 1.6 | 3.2 | 0.00 | 0.00 | 0.00 | 73 | 1009.9 |
| 20260506044805 | 16 | 310 | 1.6 | 3.2 | 0.00 | 0.00 | 0.00 | 73 | 1009.9 |
| 20260506044705 | 16 | 310 | 1.6 | 3.2 | 0.00 | 0.00 | 0.00 | 73 | 1009.8 |
| 20260506044606 | 16 | 310 | 1.6 | 3.2 | 0.00 | 0.00 | 0.00 | 73 | 1009.9 |
| 20260506044506 | 16 | 310 | 1.6 | 3.2 | 0.00 | 0.00 | 0.00 | 73 | 1009.9 |
| 20260506044406 | 16 | 310 | 1.6 | 3.2 | 0.00 | 0.00 | 0.00 | 73 | 1009.9 |
| 20260506044304 | 16 | 310 | 1.6 | 3.2 | 0.00 | 0.00 | 0.00 | 73 | 1009.8 |
| 20260506044204 | 16 | 310 | 0.0 | 3.2 | 0.00 | 0.00 | 0.00 | 73 | 1009.9 |
| 20260506044007 | 16 | 310 | 1.6 | 3.2 | 0.00 | 0.00 | 0.00 | 73 | 1009.8 |
| 20260506043805 | 16 | 264 | 1.6 | 3.2 | 0.00 | 0.00 | 0.00 | 73 | 1009.8 |
| 20260506043704 | 16 | 264 | 1.6 | 3.2 | 0.00 | 0.00 | 0.00 | 73 | 1009.8 |
| 20260506043604 | 16 | 264 | 1.6 | 3.2 | 0.00 | 0.00 | 0.00 | 73 | 1009.9 |
| 20260506043507 | 16 | 264 | 1.6 | 3.2 | 0.00 | 0.00 | 0.00 | 73 | 1009.8 |
| 20260506043304 | 16 | 231 | 1.6 | 4.8 | 0.00 | 0.00 | 0.00 | 73 | 1009.7 |
| 20260506043204 | 16 | 253 | 1.6 | 4.8 | 0.00 | 0.00 | 0.00 | 73 | 1009.8 |
| 20260506043105 | 16 | 261 | 1.6 | 4.8 | 0.00 | 0.00 | 0.00 | 73 | 1009.7 |
| 20260506042905 | 16 | 302 | 1.6 | 4.8 | 0.00 | 0.00 | 0.00 | 74 | 1009.8 |
| 20260506042804 | 16 | 301 | 1.6 | 4.8 | 0.00 | 0.00 | 0.00 | 74 | 1009.8 |
| 20260506042705 | 16 | 301 | 1.6 | 4.8 | 0.00 | 0.00 | 0.00 | 74 | 1009.8 |
| 20260506042605 | 16 | 301 | 1.6 | 4.8 | 0.00 | 0.00 | 0.00 | 74 | 1009.8 |
| 20260506042506 | 16 | 293 | 1.6 | 6.4 | 0.00 | 0.00 | 0.00 | 74 | 1009.8 |
| 20260506042405 | 16 | 260 | 1.6 | 6.4 | 0.00 | 0.00 | 0.00 | 74 | 1009.9 |
| 20260506042306 | 16 | 272 | 1.6 | 6.4 | 0.00 | 0.00 | 0.00 | 74 | 1009.8 |
| 20260506042205 | 16 | 231 | 1.6 | 6.4 | 0.00 | 0.00 | 0.00 | 74 | 1009.8 |
| 20260506042105 | 16 | 283 | 1.6 | 6.4 | 0.00 | 0.00 | 0.00 | 74 | 1009.8 |
| 20260506042007 | 16 | 312 | 1.6 | 6.4 | 0.00 | 0.00 | 0.00 | 74 | 1009.8 |
| 20260506041906 | 16 | 285 | 1.6 | 6.4 | 0.00 | 0.00 | 0.00 | 74 | 1009.8 |
| 20260506041805 | 16 | 312 | 1.6 | 6.4 | 0.00 | 0.00 | 0.00 | 74 | 1009.8 |
| 20260506041705 | 16 | 312 | 1.6 | 6.4 | 0.00 | 0.00 | 0.00 | 74 | 1009.8 |
| 20260506041606 | 16 | 321 | 1.6 | 3.2 | 0.00 | 0.00 | 0.00 | 74 | 1009.8 |
| 20260506041506 | 16 | 289 | 1.6 | 3.2 | 0.00 | 0.00 | 0.00 | 74 | 1009.8 |
| 20260506041405 | 16 | 289 | 0.0 | 3.2 | 0.00 | 0.00 | 0.00 | 74 | 1009.8 |
| 20260506041305 | 16 | 309 | 0.0 | 3.2 | 0.00 | 0.00 | 0.00 | 74 | 1009.9 |
| 20260506041205 | 16 | 309 | 1.6 | 3.2 | 0.00 | 0.00 | 0.00 | 74 | 1009.8 |
| 20260506041106 | 16 | 309 | 1.6 | 3.2 | 0.00 | 0.00 | 0.00 | 74 | 1009.8 |
| 20260506040805 | 16 | 318 | 1.6 | 4.8 | 0.00 | 0.00 | 0.00 | 74 | 1009.8 |
| 20260506040705 | 16 | 330 | 1.6 | 4.8 | 0.00 | 0.00 | 0.00 | 74 | 1009.8 |
| 20260506040606 | 16 | 292 | 1.6 | 4.8 | 0.00 | 0.00 | 0.00 | 74 | 1009.8 |
| 20260506040506 | 16 | 292 | 1.6 | 4.8 | 0.00 | 0.00 | 0.00 | 74 | 1009.8 |
| 20260506040305 | 16 | 292 | 1.6 | 4.8 | 0.00 | 0.00 | 0.00 | 74 | 1009.8 |
| 20260506040204 | 16 | 292 | 1.6 | 4.8 | 0.00 | 0.00 | 0.00 | 74 | 1009.7 |
| 20260506040106 | 16 | 278 | 1.6 | 4.8 | 0.00 | 0.00 | 0.00 | 74 | 1009.8 |
| 20260506040007 | 16 | 303 | 1.6 | 4.8 | 0.00 | 0.00 | 0.00 | 74 | 1009.8 |
| 20260506035905 | 16 | 342 | 1.6 | 4.8 | 0.00 | 0.00 | 0.00 | 74 | 1009.7 |
| 20260506035705 | 16 | 271 | 3.2 | 4.8 | 0.00 | 0.00 | 0.00 | 74 | 1009.8 |
| 20260506035606 | 16 | 288 | 1.6 | 8.0 | 0.00 | 0.00 | 0.00 | 74 | 1009.8 |
| 20260506035508 | 16 | 335 | 3.2 | 8.0 | 0.00 | 0.00 | 0.00 | 74 | 1009.8 |
| 20260506035405 | 16 | 335 | 3.2 | 8.0 | 0.00 | 0.00 | 0.00 | 74 | 1009.8 |
| 20260506035306 | 16 | 335 | 3.2 | 8.0 | 0.00 | 0.00 | 0.00 | 74 | 1009.8 |
| 20260506035206 | 16 | 335 | 3.2 | 8.0 | 0.00 | 0.00 | 0.00 | 74 | 1009.8 |
| 20260506035007 | 16 | 354 | 1.6 | 8.0 | 0.00 | 0.00 | 0.00 | 74 | 1009.9 |
| 20260506034905 | 16 | 312 | 1.6 | 8.0 | 0.00 | 0.00 | 0.00 | 74 | 1009.9 |
| 20260506034605 | 16 | 330 | 1.6 | 4.8 | 0.00 | 0.00 | 0.00 | 74 | 1009.8 |
| 20260506034506 | 16 | 343 | 0.0 | 4.8 | 0.00 | 0.00 | 0.00 | 74 | 1009.8 |
| 20260506034405 | 16 | 266 | 0.0 | 4.8 | 0.00 | 0.00 | 0.00 | 74 | 1009.9 |
| 20260506034205 | 16 | 260 | 0.0 | 3.2 | 0.00 | 0.00 | 0.00 | 74 | 1009.8 |
| 20260506034105 | 16 | 260 | 1.6 | 3.2 | 0.00 | 0.00 | 0.00 | 74 | 1009.8 |
| 20260506034007 | 16 | 260 | 1.6 | 4.8 | 0.00 | 0.00 | 0.00 | 74 | 1009.8 |
| 20260506033805 | 16 | 260 | 1.6 | 4.8 | 0.00 | 0.00 | 0.00 | 74 | 1009.8 |
| 20260506033705 | 16 | 260 | 1.6 | 4.8 | 0.00 | 0.00 | 0.00 | 74 | 1009.8 |
| 20260506033508 | 16 | 319 | 1.6 | 4.8 | 0.00 | 0.00 | 0.00 | 74 | 1009.8 |
| 20260506033406 | 16 | 319 | 1.6 | 4.8 | 0.00 | 0.00 | 0.00 | 74 | 1009.8 |
| 20260506033306 | 16 | 319 | 1.6 | 4.8 | 0.00 | 0.00 | 0.00 | 74 | 1009.8 |
| 20260506033205 | 16 | 319 | 1.6 | 4.8 | 0.00 | 0.00 | 0.00 | 74 | 1009.8 |
| 20260506033104 | 16 | 303 | 1.6 | 3.2 | 0.00 | 0.00 | 0.00 | 74 | 1009.8 |
| 20260506033008 | 16 | 303 | 1.6 | 3.2 | 0.00 | 0.00 | 0.00 | 74 | 1009.8 |
| 20260506032905 | 16 | 303 | 1.6 | 3.2 | 0.00 | 0.00 | 0.00 | 74 | 1009.9 |
| 20260506032805 | 16 | 303 | 1.6 | 3.2 | 0.00 | 0.00 | 0.00 | 74 | 1009.8 |
| 20260506032706 | 16 | 303 | 0.0 | 3.2 | 0.00 | 0.00 | 0.00 | 74 | 1009.8 |
| 20260506032507 | 16 | 335 | 0.0 | 3.2 | 0.00 | 0.00 | 0.00 | 75 | 1009.8 |
| 20260506032406 | 16 | 335 | 1.6 | 3.2 | 0.00 | 0.00 | 0.00 | 75 | 1009.8 |
| 20260506032306 | 16 | 265 | 1.6 | 3.2 | 0.00 | 0.00 | 0.00 | 75 | 1009.8 |
| 20260506032205 | 16 | 265 | 1.6 | 4.8 | 0.00 | 0.00 | 0.00 | 75 | 1009.7 |
| 20260506032105 | 16 | 325 | 1.6 | 4.8 | 0.00 | 0.00 | 0.00 | 75 | 1009.8 |
| 20260506032006 | 16 | 325 | 1.6 | 4.8 | 0.00 | 0.00 | 0.00 | 75 | 1009.9 |
| 20260506031905 | 16 | 285 | 1.6 | 4.8 | 0.00 | 0.00 | 0.00 | 75 | 1009.8 |
| 20260506031805 | 16 | 285 | 1.6 | 4.8 | 0.00 | 0.00 | 0.00 | 75 | 1009.8 |
| 20260506031705 | 16 | 285 | 1.6 | 4.8 | 0.00 | 0.00 | 0.00 | 75 | 1009.8 |
| 20260506031605 | 16 | 273 | 1.6 | 4.8 | 0.00 | 0.00 | 0.00 | 75 | 1009.7 |
| 20260506031407 | 16 | 325 | 1.6 | 4.8 | 0.00 | 0.00 | 0.00 | 75 | 1009.8 |
| 20260506031307 | 16 | 32 | 1.6 | 4.8 | 0.00 | 0.00 | 0.00 | 75 | 1009.9 |
| 20260506031205 | 16 | 312 | 1.6 | 4.8 | 0.00 | 0.00 | 0.00 | 76 | 1009.8 |
| 20260506031107 | 16 | 242 | 1.6 | 4.8 | 0.00 | 0.00 | 0.00 | 76 | 1009.8 |
| 20260506031006 | 16 | 320 | 1.6 | 4.8 | 0.00 | 0.00 | 0.00 | 76 | 1009.8 |
| 20260506030904 | 16 | 320 | 1.6 | 4.8 | 0.00 | 0.00 | 0.00 | 76 | 1009.8 |
| 20260506030705 | 16 | 320 | 1.6 | 4.8 | 0.00 | 0.00 | 0.00 | 76 | 1009.8 |
| 20260506030605 | 16 | 320 | 1.6 | 4.8 | 0.00 | 0.00 | 0.00 | 76 | 1009.8 |
| 20260506030506 | 16 | 308 | 1.6 | 4.8 | 0.00 | 0.00 | 0.00 | 76 | 1009.8 |
| 20260506030305 | 16 | 335 | 1.6 | 4.8 | 0.00 | 0.00 | 0.00 | 76 | 1009.8 |
| 20260506030206 | 16 | 287 | 1.6 | 3.2 | 0.00 | 0.00 | 0.00 | 76 | 1009.8 |
| 20260506030105 | 16 | 287 | 1.6 | 3.2 | 0.00 | 0.00 | 0.00 | 77 | 1009.8 |
| 20260506030009 | 16 | 239 | 1.6 | 3.2 | 0.00 | 0.00 | 0.00 | 77 | 1009.8 |
| 20260506025907 | 16 | 239 | 1.6 | 3.2 | 0.00 | 0.00 | 0.00 | 77 | 1009.9 |
| 20260506025804 | 16 | 255 | 1.6 | 3.2 | 0.00 | 0.00 | 0.00 | 77 | 1009.8 |
| 20260506025704 | 16 | 255 | 1.6 | 3.2 | 0.00 | 0.00 | 0.00 | 77 | 1009.8 |
| 20260506025604 | 16 | 289 | 1.6 | 3.2 | 0.00 | 0.00 | 0.00 | 77 | 1009.9 |
| 20260506025507 | 16 | 265 | 1.6 | 3.2 | 0.00 | 0.00 | 0.00 | 77 | 1009.9 |
| 20260506025407 | 16 | 225 | 1.6 | 3.2 | 0.00 | 0.00 | 0.00 | 77 | 1009.8 |
| 20260506025306 | 16 | 257 | 1.6 | 3.2 | 0.00 | 0.00 | 0.00 | 77 | 1009.8 |
| 20260506025204 | 16 | 257 | 1.6 | 3.2 | 0.00 | 0.00 | 0.00 | 77 | 1009.8 |
| 20260506025104 | 16 | 284 | 1.6 | 3.2 | 0.00 | 0.00 | 0.00 | 77 | 1009.8 |
| 20260506025007 | 16 | 284 | 1.6 | 3.2 | 0.00 | 0.00 | 0.00 | 77 | 1009.9 |
| 20260506024806 | 16 | 300 | 1.6 | 3.2 | 0.00 | 0.00 | 0.00 | 78 | 1009.8 |
| 20260506024706 | 16 | 247 | 1.6 | 3.2 | 0.00 | 0.00 | 0.00 | 77 | 1009.8 |
| 20260506024605 | 16 | 247 | 1.6 | 4.8 | 0.00 | 0.00 | 0.00 | 78 | 1009.8 |
| 20260506024306 | 16 | 247 | 1.6 | 6.4 | 0.00 | 0.00 | 0.00 | 78 | 1009.8 |
| 20260506024205 | 16 | 247 | 1.6 | 6.4 | 0.00 | 0.00 | 0.00 | 78 | 1009.9 |
| 20260506024106 | 16 | 247 | 1.6 | 6.4 | 0.00 | 0.00 | 0.00 | 78 | 1009.8 |
| 20260506024007 | 16 | 247 | 1.6 | 6.4 | 0.00 | 0.00 | 0.00 | 78 | 1009.9 |
| 20260506023904 | 16 | 247 | 1.6 | 6.4 | 0.00 | 0.00 | 0.00 | 78 | 1009.9 |
| 20260506023705 | 16 | 247 | 1.6 | 6.4 | 0.00 | 0.00 | 0.00 | 78 | 1009.9 |
| 20260506023605 | 16 | 247 | 1.6 | 6.4 | 0.00 | 0.00 | 0.00 | 78 | 1009.9 |
| 20260506023506 | 16 | 262 | 1.6 | 4.8 | 0.00 | 0.00 | 0.00 | 78 | 1009.9 |
| 20260506023405 | 16 | 295 | 1.6 | 4.8 | 0.00 | 0.00 | 0.00 | 78 | 1009.8 |
| 20260506023305 | 16 | 314 | 1.6 | 4.8 | 0.00 | 0.00 | 0.00 | 78 | 1009.9 |
| 20260506023205 | 16 | 314 | 1.6 | 4.8 | 0.00 | 0.00 | 0.00 | 78 | 1009.8 |
| 20260506023106 | 16 | 314 | 1.6 | 4.8 | 0.00 | 0.00 | 0.00 | 78 | 1009.9 |
| 20260506023007 | 16 | 312 | 1.6 | 4.8 | 0.00 | 0.00 | 0.00 | 78 | 1009.8 |
| 20260506022904 | 16 | 270 | 1.6 | 3.2 | 0.00 | 0.00 | 0.00 | 78 | 1009.8 |
| 20260506022804 | 16 | 273 | 1.6 | 3.2 | 0.00 | 0.00 | 0.00 | 78 | 1009.9 |
| 20260506022704 | 16 | 273 | 1.6 | 3.2 | 0.00 | 0.00 | 0.00 | 78 | 1009.9 |
| 20260506022606 | 16 | 273 | 1.6 | 3.2 | 0.00 | 0.00 | 0.00 | 78 | 1009.9 |
| 20260506022306 | 16 | 241 | 1.6 | 3.2 | 0.00 | 0.00 | 0.00 | 77 | 1009.8 |
| 20260506022207 | 16 | 241 | 1.6 | 4.8 | 0.00 | 0.00 | 0.00 | 77 | 1009.8 |
| 20260506022105 | 16 | 241 | 3.2 | 6.4 | 0.00 | 0.00 | 0.00 | 77 | 1009.8 |
| 20260506022008 | 16 | 256 | 3.2 | 6.4 | 0.00 | 0.00 | 0.00 | 77 | 1009.8 |
| 20260506021908 | 16 | 224 | 3.2 | 6.4 | 0.00 | 0.00 | 0.00 | 77 | 1009.9 |
| 20260506021704 | 16 | 224 | 3.2 | 6.4 | 0.00 | 0.00 | 0.00 | 77 | 1009.8 |
| 20260506021605 | 16 | 272 | 3.2 | 6.4 | 0.00 | 0.00 | 0.00 | 77 | 1009.8 |
| 20260506021506 | 16 | 229 | 3.2 | 6.4 | 0.00 | 0.00 | 0.00 | 77 | 1009.9 |
| 20260506021406 | 16 | 229 | 1.6 | 6.4 | 0.00 | 0.00 | 0.00 | 78 | 1009.9 |
| 20260506021305 | 16 | 341 | 1.6 | 6.4 | 0.00 | 0.00 | 0.00 | 78 | 1009.9 |
| 20260506021205 | 16 | 289 | 1.6 | 6.4 | 0.00 | 0.00 | 0.00 | 77 | 1009.9 |
| 20260506021106 | 16 | 302 | 1.6 | 6.4 | 0.00 | 0.00 | 0.00 | 77 | 1009.9 |
| 20260506021008 | 16 | 320 | 1.6 | 6.4 | 0.00 | 0.00 | 0.00 | 77 | 1009.9 |
| 20260506020906 | 16 | 220 | 1.6 | 6.4 | 0.00 | 0.00 | 0.00 | 77 | 1009.9 |
| 20260506020806 | 17 | 220 | 0.0 | 6.4 | 0.00 | 0.00 | 0.00 | 77 | 1009.9 |
| 20260506020506 | 17 | 241 | 0.0 | 4.8 | 0.00 | 0.00 | 0.00 | 78 | 1009.9 |
| 20260506020404 | 17 | 304 | 0.0 | 1.6 | 0.00 | 0.00 | 0.00 | 78 | 1009.8 |
| 20260506020305 | 17 | 223 | 0.0 | 0.0 | 0.00 | 0.00 | 0.00 | 78 | 1009.8 |
| 20260506020205 | 17 | 76 | 0.0 | 0.0 | 0.00 | 0.00 | 0.00 | 78 | 1009.8 |
| 20260506020105 | 17 | 76 | 0.0 | 0.0 | 0.00 | 0.00 | 0.00 | 78 | 1009.8 |
| 20260506020008 | 17 | 76 | 0.0 | 1.6 | 0.00 | 0.00 | 0.00 | 78 | 1009.8 |
| 20260506015804 | 17 | 76 | 0.0 | 4.8 | 0.00 | 0.00 | 0.00 | 78 | 1009.8 |
| 20260506015704 | 17 | 76 | 1.6 | 4.8 | 0.00 | 0.00 | 0.00 | 78 | 1009.8 |
| 20260506015605 | 17 | 76 | 1.6 | 4.8 | 0.00 | 0.00 | 0.00 | 78 | 1009.8 |
| 20260506015506 | 17 | 76 | 1.6 | 4.8 | 0.00 | 0.00 | 0.00 | 78 | 1009.7 |
| 20260506015206 | 17 | 3 | 1.6 | 6.4 | 0.00 | 0.00 | 0.00 | 78 | 1009.7 |
| 20260506015007 | 17 | 3 | 1.6 | 6.4 | 0.00 | 0.00 | 0.00 | 78 | 1009.7 |
| 20260506014905 | 17 | 34 | 1.6 | 6.4 | 0.00 | 0.00 | 0.00 | 78 | 1009.7 |
| 20260506014705 | 17 | 60 | 0.0 | 6.4 | 0.00 | 0.00 | 0.00 | 78 | 1009.7 |
| 20260506014605 | 17 | 45 | 0.0 | 6.4 | 0.00 | 0.00 | 0.00 | 78 | 1009.7 |
| 20260506014404 | 17 | 3 | 0.0 | 4.8 | 0.00 | 0.00 | 0.00 | 78 | 1009.7 |
| 20260506014304 | 17 | 3 | 0.0 | 4.8 | 0.00 | 0.00 | 0.00 | 78 | 1009.7 |
| 20260506014204 | 17 | 319 | 0.0 | 4.8 | 0.00 | 0.00 | 0.00 | 78 | 1009.7 |
| 20260506014104 | 17 | 279 | 0.0 | 4.8 | 0.00 | 0.00 | 0.00 | 78 | 1009.8 |
| 20260506014008 | 17 | 279 | 1.6 | 4.8 | 0.00 | 0.00 | 0.00 | 78 | 1009.7 |
| 20260506013904 | 17 | 279 | 1.6 | 4.8 | 0.00 | 0.00 | 0.00 | 78 | 1009.8 |
| 20260506013804 | 17 | 279 | 1.6 | 4.8 | 0.00 | 0.00 | 0.00 | 78 | 1009.8 |
| 20260506013706 | 17 | 279 | 1.6 | 4.8 | 0.00 | 0.00 | 0.00 | 78 | 1009.8 |
| 20260506013506 | 17 | 279 | 3.2 | 6.4 | 0.00 | 0.00 | 0.00 | 78 | 1009.9 |
| 20260506013405 | 17 | 279 | 3.2 | 6.4 | 0.00 | 0.00 | 0.00 | 78 | 1009.8 |
| 20260506013305 | 17 | 279 | 3.2 | 6.4 | 0.00 | 0.00 | 0.00 | 78 | 1009.9 |
| 20260506013205 | 17 | 263 | 3.2 | 8.0 | 0.00 | 0.00 | 0.00 | 78 | 1009.8 |
| 20260506013105 | 17 | 325 | 3.2 | 8.0 | 0.00 | 0.00 | 0.00 | 78 | 1009.9 |
| 20260506013007 | 17 | 318 | 3.2 | 8.0 | 0.00 | 0.00 | 0.00 | 78 | 1009.9 |
| 20260506012904 | 17 | 330 | 3.2 | 8.0 | 0.00 | 0.00 | 0.00 | 78 | 1009.9 |
| 20260506012806 | 17 | 210 | 3.2 | 8.0 | 0.00 | 0.00 | 0.00 | 78 | 1009.9 |
| 20260506012705 | 17 | 270 | 3.2 | 8.0 | 0.00 | 0.00 | 0.00 | 78 | 1009.9 |
| 20260506012605 | 17 | 335 | 3.2 | 8.0 | 0.00 | 0.00 | 0.00 | 78 | 1009.9 |
| 20260506012506 | 17 | 344 | 3.2 | 8.0 | 0.00 | 0.00 | 0.00 | 78 | 1009.9 |
| 20260506012406 | 17 | 335 | 3.2 | 8.0 | 0.00 | 0.00 | 0.00 | 78 | 1009.9 |
| 20260506012308 | 17 | 316 | 3.2 | 8.0 | 0.00 | 0.00 | 0.00 | 78 | 1009.9 |
| 20260506012204 | 17 | 266 | 3.2 | 6.4 | 0.00 | 0.00 | 0.00 | 78 | 1009.9 |
| 20260506012007 | 17 | 314 | 3.2 | 6.4 | 0.00 | 0.00 | 0.00 | 78 | 1010.0 |
| 20260506011907 | 17 | 279 | 3.2 | 6.4 | 0.00 | 0.00 | 0.00 | 78 | 1010.0 |
| 20260506011805 | 17 | 293 | 3.2 | 6.4 | 0.00 | 0.00 | 0.00 | 78 | 1009.9 |
| 20260506011706 | 17 | 266 | 3.2 | 6.4 | 0.00 | 0.00 | 0.00 | 78 | 1009.9 |
| 20260506011604 | 17 | 254 | 3.2 | 8.0 | 0.00 | 0.00 | 0.00 | 78 | 1010.0 |
| 20260506011507 | 17 | 254 | 3.2 | 8.0 | 0.00 | 0.00 | 0.00 | 78 | 1010.0 |
| 20260506011406 | 17 | 310 | 3.2 | 8.0 | 0.00 | 0.00 | 0.00 | 78 | 1010.0 |
| 20260506011306 | 17 | 340 | 3.2 | 8.0 | 0.00 | 0.00 | 0.00 | 78 | 1009.9 |
| 20260506011204 | 17 | 236 | 3.2 | 8.0 | 0.00 | 0.00 | 0.00 | 78 | 1010.0 |
| 20260506011105 | 17 | 236 | 3.2 | 8.0 | 0.00 | 0.00 | 0.00 | 78 | 1010.0 |
| 20260506011008 | 17 | 239 | 3.2 | 8.0 | 0.00 | 0.00 | 0.00 | 78 | 1009.9 |
| 20260506010907 | 17 | 268 | 3.2 | 8.0 | 0.00 | 0.00 | 0.00 | 77 | 1009.9 |
| 20260506010807 | 17 | 236 | 1.6 | 8.0 | 0.00 | 0.00 | 0.00 | 77 | 1009.9 |
| 20260506010706 | 17 | 225 | 1.6 | 6.4 | 0.00 | 0.00 | 0.00 | 77 | 1009.9 |
| 20260506010508 | 17 | 240 | 1.6 | 6.4 | 0.00 | 0.00 | 0.00 | 77 | 1009.9 |
| 20260506010206 | 17 | 249 | 1.6 | 8.0 | 0.00 | 0.00 | 0.00 | 77 | 1009.9 |
| 20260506010107 | 17 | 249 | 1.6 | 8.0 | 0.00 | 0.00 | 0.00 | 77 | 1009.8 |
| 20260506010011 | 17 | 249 | 1.6 | 8.0 | 0.00 | 0.00 | 0.00 | 77 | 1009.8 |
| 20260506005906 | 17 | 278 | 1.6 | 8.0 | 0.00 | 0.00 | 0.00 | 77 | 1009.9 |
| 20260506005706 | 17 | 249 | 1.6 | 8.0 | 0.00 | 0.00 | 0.00 | 77 | 1009.9 |
| 20260506005605 | 17 | 238 | 1.6 | 8.0 | 0.00 | 0.00 | 0.00 | 76 | 1010.0 |
| 20260506005508 | 17 | 238 | 1.6 | 8.0 | 0.00 | 0.00 | 0.00 | 76 | 1010.1 |
| 20260506005307 | 17 | 226 | 1.6 | 8.0 | 0.00 | 0.00 | 0.00 | 76 | 1010.0 |
| 20260506005205 | 17 | 277 | 1.6 | 6.4 | 0.00 | 0.00 | 0.00 | 76 | 1010.0 |
| 20260506005105 | 17 | 221 | 1.6 | 6.4 | 0.00 | 0.00 | 0.00 | 76 | 1010.0 |
| 20260506005007 | 17 | 261 | 1.6 | 6.4 | 0.00 | 0.00 | 0.00 | 76 | 1010.1 |
| 20260506004904 | 17 | 248 | 1.6 | 6.4 | 0.00 | 0.00 | 0.00 | 76 | 1010.1 |
| 20260506004806 | 17 | 247 | 1.6 | 6.4 | 0.00 | 0.00 | 0.00 | 76 | 1010.0 |
| 20260506004405 | 17 | 228 | 1.6 | 4.8 | 0.00 | 0.00 | 0.00 | 75 | 1010.0 |
| 20260506004305 | 17 | 228 | 1.6 | 4.8 | 0.00 | 0.00 | 0.00 | 75 | 1010.1 |
| 20260506004206 | 17 | 228 | 1.6 | 4.8 | 0.00 | 0.00 | 0.00 | 75 | 1010.0 |
| 20260506004006 | 17 | 228 | 1.6 | 6.4 | 0.00 | 0.00 | 0.00 | 75 | 1010.1 |
| 20260506003904 | 17 | 228 | 1.6 | 6.4 | 0.00 | 0.00 | 0.00 | 75 | 1010.0 |
| 20260506003804 | 17 | 206 | 1.6 | 6.4 | 0.00 | 0.00 | 0.00 | 75 | 1010.0 |
| 20260506003705 | 17 | 166 | 1.6 | 6.4 | 0.00 | 0.00 | 0.00 | 75 | 1010.1 |
| 20260506003506 | 17 | 46 | 1.6 | 6.4 | 0.00 | 0.00 | 0.00 | 75 | 1010.0 |
| 20260506003305 | 17 | 345 | 1.6 | 6.4 | 0.00 | 0.00 | 0.00 | 75 | 1010.0 |
| 20260506003204 | 17 | 349 | 1.6 | 6.4 | 0.00 | 0.00 | 0.00 | 75 | 1010.0 |
| 20260506003104 | 17 | 39 | 1.6 | 3.2 | 0.00 | 0.00 | 0.00 | 75 | 1010.0 |
| 20260506003007 | 17 | 39 | 1.6 | 3.2 | 0.00 | 0.00 | 0.00 | 75 | 1010.0 |
| 20260506002905 | 17 | 39 | 1.6 | 3.2 | 0.00 | 0.00 | 0.00 | 75 | 1010.1 |
| 20260506002804 | 17 | 39 | 1.6 | 3.2 | 0.00 | 0.00 | 0.00 | 75 | 1010.1 |
| 20260506002706 | 17 | 39 | 1.6 | 3.2 | 0.00 | 0.00 | 0.00 | 75 | 1010.1 |
| 20260506002606 | 17 | 39 | 0.0 | 3.2 | 0.00 | 0.00 | 0.00 | 75 | 1010.1 |
| 20260506002507 | 17 | 39 | 0.0 | 3.2 | 0.00 | 0.00 | 0.00 | 75 | 1010.1 |
| 20260506002405 | 17 | 39 | 0.0 | 3.2 | 0.00 | 0.00 | 0.00 | 75 | 1010.1 |
| 20260506002306 | 17 | 39 | 0.0 | 3.2 | 0.00 | 0.00 | 0.00 | 75 | 1010.1 |
| 20260506002204 | 17 | 39 | 0.0 | 3.2 | 0.00 | 0.00 | 0.00 | 75 | 1010.1 |
| 20260506002106 | 17 | 39 | 0.0 | 3.2 | 0.00 | 0.00 | 0.00 | 75 | 1010.2 |
| 20260506002006 | 18 | 39 | 0.0 | 3.2 | 0.00 | 0.00 | 0.00 | 75 | 1010.2 |
| 20260506001805 | 18 | 39 | 1.6 | 4.8 | 0.00 | 0.00 | 0.00 | 75 | 1010.2 |
| 20260506001705 | 18 | 39 | 1.6 | 11.3 | 0.00 | 0.00 | 0.00 | 75 | 1010.2 |
| 20260506001604 | 18 | 39 | 1.6 | 11.3 | 0.00 | 0.00 | 0.00 | 75 | 1010.2 |
| 20260506001507 | 18 | 39 | 1.6 | 11.3 | 0.00 | 0.00 | 0.00 | 75 | 1010.2 |
| 20260506001405 | 18 | 39 | 1.6 | 11.3 | 0.00 | 0.00 | 0.00 | 75 | 1010.2 |
| 20260506001305 | 18 | 39 | 1.6 | 11.3 | 0.00 | 0.00 | 0.00 | 75 | 1010.1 |
| 20260506001205 | 18 | 62 | 1.6 | 11.3 | 0.00 | 0.00 | 0.00 | 75 | 1010.1 |
| 20260506001105 | 18 | 297 | 1.6 | 11.3 | 0.00 | 0.00 | 0.00 | 75 | 1010.2 |
| 20260506001007 | 18 | 297 | 1.6 | 11.3 | 0.00 | 0.00 | 0.00 | 75 | 1010.2 |
| 20260506000906 | 18 | 297 | 1.6 | 11.3 | 0.00 | 0.00 | 0.00 | 75 | 1010.2 |
| 20260506000705 | 18 | 297 | 1.6 | 8.0 | 0.00 | 0.00 | 0.00 | 75 | 1010.2 |
| 20260506000606 | 18 | 297 | 1.6 | 9.7 | 0.00 | 0.00 | 0.00 | 75 | 1010.2 |
| 20260506000508 | 18 | 297 | 1.6 | 9.7 | 0.00 | 0.00 | 0.00 | 75 | 1010.2 |
| 20260506000405 | 18 | 306 | 1.6 | 9.7 | 0.00 | 0.00 | 0.00 | 75 | 1010.2 |
| 20260506000205 | 18 | 52 | 3.2 | 9.7 | 0.00 | 0.00 | 0.00 | 75 | 1010.3 |
| 20260506000106 | 18 | 32 | 3.2 | 9.7 | 0.00 | 0.00 | 0.00 | 75 | 1010.3 |
| 20260506000009 | 18 | 32 | 3.2 | 9.7 | 0.00 | 0.00 | 0.00 | 75 | 1010.3 |
| 20260505235705 | 18 | 38 | 3.2 | 8.0 | 0.00 | 0.00 | 0.00 | 76 | 1010.3 |
| 20260505235605 | 18 | 58 | 3.2 | 8.0 | 0.00 | 0.00 | 0.00 | 76 | 1010.3 |
| 20260505235506 | 18 | 25 | 3.2 | 6.4 | 0.00 | 0.00 | 0.00 | 76 | 1010.3 |
| 20260505235404 | 18 | 69 | 4.8 | 12.9 | 0.00 | 0.00 | 0.00 | 76 | 1010.3 |
| 20260505235305 | 18 | 359 | 4.8 | 12.9 | 0.00 | 0.00 | 0.00 | 76 | 1010.3 |
| 20260505235206 | 18 | 358 | 4.8 | 12.9 | 0.00 | 0.00 | 0.00 | 76 | 1010.3 |
| 20260505235105 | 18 | 321 | 4.8 | 16.1 | 0.00 | 0.00 | 0.00 | 76 | 1010.3 |
| 20260505234904 | 18 | 93 | 6.4 | 16.1 | 0.00 | 0.00 | 0.00 | 76 | 1010.2 |
| 20260505234805 | 18 | 52 | 6.4 | 16.1 | 0.00 | 0.00 | 0.00 | 76 | 1010.2 |
| 20260505234706 | 18 | 2 | 8.0 | 17.7 | 0.00 | 0.00 | 0.00 | 76 | 1010.3 |
| 20260505234605 | 18 | 37 | 8.0 | 17.7 | 0.00 | 0.00 | 0.00 | 76 | 1010.2 |
| 20260505234506 | 18 | 352 | 9.7 | 17.7 | 0.00 | 0.00 | 0.00 | 76 | 1010.1 |
| 20260505234406 | 18 | 41 | 9.7 | 17.7 | 0.00 | 0.00 | 0.00 | 76 | 1010.3 |
| 20260505234305 | 18 | 56 | 8.0 | 17.7 | 0.00 | 0.00 | 0.00 | 76 | 1010.3 |
| 20260505234205 | 18 | 69 | 9.7 | 17.7 | 0.00 | 0.00 | 0.00 | 76 | 1010.2 |
| 20260505234105 | 18 | 16 | 9.7 | 17.7 | 0.00 | 0.00 | 0.00 | 76 | 1010.2 |
| 20260505234007 | 18 | 88 | 9.7 | 17.7 | 0.00 | 0.00 | 0.00 | 76 | 1010.2 |
| 20260505233905 | 18 | 38 | 8.0 | 17.7 | 0.00 | 0.00 | 0.00 | 76 | 1010.2 |
| 20260505233801 | 18 | 41 | 8.0 | 17.7 | 0.00 | 0.00 | 0.00 | 76 | 1010.2 |
| 20260505233700 | 18 | 69 | 8.0 | 17.7 | 0.00 | 0.00 | 0.00 | 76 | 1010.2 |
| 20260505233601 | 18 | 43 | 8.0 | 17.7 | 0.00 | 0.00 | 0.00 | 76 | 1010.2 |
| 20260505233504 | 18 | 71 | 8.0 | 19.3 | 0.00 | 0.00 | 0.00 | 76 | 1010.2 |
| 20260505233400 | 18 | 54 | 8.0 | 19.3 | 0.00 | 0.00 | 0.00 | 76 | 1010.2 |
| 20260505233301 | 18 | 66 | 8.0 | 19.3 | 0.00 | 0.00 | 0.00 | 76 | 1010.2 |
| 20260505233202 | 18 | 57 | 8.0 | 19.3 | 0.00 | 0.00 | 0.00 | 76 | 1010.2 |
| 20260505233008 | 18 | 57 | 8.0 | 19.3 | 0.00 | 0.00 | 0.00 | 77 | 1010.1 |
| 20260505232904 | 18 | 35 | 8.0 | 19.3 | 0.00 | 0.00 | 0.00 | 77 | 1010.2 |
| 20260505232805 | 18 | 96 | 8.0 | 19.3 | 0.00 | 0.00 | 0.00 | 76 | 1010.1 |
| 20260505232705 | 18 | 75 | 6.4 | 19.3 | 0.00 | 0.00 | 0.00 | 76 | 1010.2 |
| 20260505232605 | 18 | 13 | 6.4 | 17.7 | 0.00 | 0.00 | 0.00 | 76 | 1010.1 |
| 20260505232508 | 18 | 87 | 6.4 | 17.7 | 0.00 | 0.00 | 0.00 | 76 | 1010.2 |
| 20260505232404 | 18 | 65 | 6.4 | 17.7 | 0.00 | 0.00 | 0.00 | 76 | 1010.2 |
| 20260505232206 | 18 | 56 | 6.4 | 17.7 | 0.00 | 0.00 | 0.00 | 76 | 1010.2 |
| 20260505232105 | 18 | 66 | 4.8 | 14.5 | 0.00 | 0.00 | 0.00 | 76 | 1010.2 |
| 20260505232006 | 18 | 198 | 4.8 | 14.5 | 0.00 | 0.00 | 0.00 | 76 | 1010.2 |
| 20260505231905 | 18 | 46 | 4.8 | 14.5 | 0.00 | 0.00 | 0.00 | 76 | 1010.2 |
| 20260505231805 | 18 | 53 | 4.8 | 14.5 | 0.00 | 0.00 | 0.00 | 76 | 1010.3 |
| 20260505231606 | 18 | 117 | 4.8 | 14.5 | 0.00 | 0.00 | 0.00 | 75 | 1010.2 |
| 20260505231506 | 18 | 83 | 4.8 | 16.1 | 0.00 | 0.00 | 0.00 | 75 | 1010.2 |
| 20260505231405 | 18 | 346 | 4.8 | 16.1 | 0.00 | 0.00 | 0.00 | 75 | 1010.3 |
| 20260505231308 | 18 | 56 | 4.8 | 16.1 | 0.00 | 0.00 | 0.00 | 75 | 1010.3 |
| 20260505231206 | 18 | 307 | 4.8 | 22.5 | 0.00 | 0.00 | 0.00 | 75 | 1010.3 |
| 20260505230906 | 18 | 37 | 6.4 | 22.5 | 0.00 | 0.00 | 0.00 | 75 | 1010.2 |
| 20260505230805 | 18 | 339 | 6.4 | 22.5 | 0.00 | 0.00 | 0.00 | 75 | 1010.2 |
| 20260505230706 | 18 | 66 | 6.4 | 22.5 | 0.00 | 0.00 | 0.00 | 75 | 1010.2 |
| 20260505230605 | 18 | 72 | 6.4 | 22.5 | 0.00 | 0.00 | 0.00 | 75 | 1010.2 |
| 20260505230507 | 18 | 37 | 6.4 | 22.5 | 0.00 | 0.00 | 0.00 | 75 | 1010.2 |
| 20260505230406 | 18 | 32 | 6.4 | 20.9 | 0.00 | 0.00 | 0.00 | 75 | 1010.2 |
| 20260505230304 | 17 | 29 | 6.4 | 20.9 | 0.00 | 0.00 | 0.00 | 75 | 1010.1 |
| 20260505230206 | 17 | 46 | 6.4 | 20.9 | 0.00 | 0.00 | 0.00 | 75 | 1010.2 |
| 20260505230104 | 17 | 71 | 8.0 | 20.9 | 0.00 | 0.00 | 0.00 | 75 | 1010.2 |
| 20260505230007 | 17 | 61 | 6.4 | 19.3 | 0.00 | 0.00 | 0.00 | 75 | 1010.2 |
| 20260505225803 | 17 | 102 | 8.0 | 19.3 | 0.00 | 0.00 | 0.00 | 75 | 1010.2 |
| 20260505225605 | 17 | 25 | 6.4 | 19.3 | 0.00 | 0.00 | 0.00 | 75 | 1010.2 |
| 20260505225505 | 17 | 23 | 6.4 | 19.3 | 0.00 | 0.00 | 0.00 | 75 | 1010.2 |
| 20260505225306 | 17 | 12 | 6.4 | 17.7 | 0.00 | 0.00 | 0.00 | 74 | 1010.2 |
| 20260505225105 | 17 | 57 | 6.4 | 17.7 | 0.00 | 0.00 | 0.00 | 74 | 1010.2 |
| 20260505225006 | 17 | 21 | 8.0 | 17.7 | 0.00 | 0.00 | 0.00 | 75 | 1010.2 |
| 20260505224904 | 17 | 10 | 8.0 | 19.3 | 0.00 | 0.00 | 0.00 | 75 | 1010.2 |
| 20260505224804 | 17 | 342 | 8.0 | 19.3 | 0.00 | 0.00 | 0.00 | 75 | 1010.2 |
| 20260505224604 | 17 | 303 | 8.0 | 19.3 | 0.00 | 0.00 | 0.00 | 75 | 1010.2 |
| 20260505224507 | 17 | 52 | 8.0 | 25.7 | 0.00 | 0.00 | 0.00 | 75 | 1010.1 |
| 20260505224404 | 17 | 251 | 8.0 | 25.7 | 0.00 | 0.00 | 0.00 | 75 | 1010.2 |
| 20260505224304 | 17 | 56 | 9.7 | 25.7 | 0.00 | 0.00 | 0.00 | 75 | 1010.1 |
| 20260505224204 | 17 | 64 | 9.7 | 25.7 | 0.00 | 0.00 | 0.00 | 75 | 1010.2 |
| 20260505224103 | 17 | 57 | 9.7 | 25.7 | 0.00 | 0.00 | 0.00 | 75 | 1010.1 |
| 20260505223903 | 17 | 41 | 8.0 | 25.7 | 0.00 | 0.00 | 0.00 | 75 | 1010.2 |
| 20260505223803 | 17 | 80 | 9.7 | 25.7 | 0.00 | 0.00 | 0.00 | 75 | 1010.1 |
| 20260505223703 | 17 | 56 | 8.0 | 25.7 | 0.00 | 0.00 | 0.00 | 75 | 1010.3 |
| 20260505223505 | 17 | 35 | 9.7 | 22.5 | 0.00 | 0.00 | 0.00 | 75 | 1010.2 |
| 20260505223305 | 17 | 44 | 9.7 | 22.5 | 0.00 | 0.00 | 0.00 | 76 | 1010.2 |
| 20260505223205 | 17 | 335 | 9.7 | 22.5 | 0.00 | 0.00 | 0.00 | 76 | 1010.3 |
| 20260505223104 | 17 | 8 | 9.7 | 22.5 | 0.00 | 0.00 | 0.00 | 76 | 1010.2 |
| 20260505223005 | 17 | 284 | 9.7 | 22.5 | 0.00 | 0.00 | 0.00 | 76 | 1010.2 |
| 20260505222903 | 17 | 56 | 9.7 | 22.5 | 0.00 | 0.00 | 0.00 | 76 | 1010.2 |
| 20260505222803 | 17 | 57 | 9.7 | 24.1 | 0.00 | 0.00 | 0.00 | 76 | 1010.3 |
| 20260505222705 | 17 | 48 | 9.7 | 24.1 | 0.00 | 0.00 | 0.00 | 76 | 1010.3 |
| 20260505222605 | 17 | 50 | 9.7 | 24.1 | 0.00 | 0.00 | 0.00 | 76 | 1010.2 |
| 20260505222403 | 17 | 77 | 8.0 | 24.1 | 0.00 | 0.00 | 0.00 | 77 | 1010.2 |
| 20260505222306 | 17 | 71 | 8.0 | 24.1 | 0.00 | 0.00 | 0.00 | 77 | 1010.1 |
| 20260505222204 | 17 | 249 | 6.4 | 24.1 | 0.00 | 0.00 | 0.00 | 77 | 1010.1 |
| 20260505222007 | 17 | 341 | 8.0 | 24.1 | 0.00 | 0.00 | 0.00 | 77 | 1010.1 |
| 20260505221903 | 17 | 48 | 8.0 | 25.7 | 0.00 | 0.00 | 0.00 | 78 | 1010.2 |
| 20260505221804 | 17 | 21 | 8.0 | 25.7 | 0.00 | 0.00 | 0.00 | 78 | 1010.1 |
| 20260505221705 | 17 | 249 | 8.0 | 25.7 | 0.00 | 0.00 | 0.00 | 78 | 1010.1 |
| 20260505221505 | 17 | 314 | 9.7 | 25.7 | 0.00 | 0.00 | 0.00 | 78 | 1010.2 |
| 20260505221305 | 17 | 272 | 9.7 | 25.7 | 0.00 | 0.00 | 0.00 | 78 | 1010.2 |
| 20260505221206 | 17 | 318 | 9.7 | 25.7 | 0.00 | 0.00 | 0.00 | 78 | 1010.2 |
| 20260505221008 | 17 | 25 | 9.7 | 25.7 | 0.00 | 0.00 | 0.00 | 78 | 1010.1 |
| 20260505220804 | 17 | 341 | 9.7 | 25.7 | 0.00 | 0.00 | 0.00 | 78 | 1010.1 |
| 20260505220605 | 17 | 22 | 9.7 | 25.7 | 0.00 | 0.00 | 0.00 | 79 | 1010.0 |
| 20260505220404 | 17 | 344 | 11.3 | 25.7 | 0.00 | 0.00 | 0.00 | 79 | 1010.0 |
| 20260505220305 | 17 | 335 | 11.3 | 25.7 | 0.00 | 0.00 | 0.00 | 79 | 1010.0 |
| 20260505220208 | 17 | 139 | 11.3 | 25.7 | 0.00 | 0.00 | 0.00 | 79 | 1010.0 |
| 20260505220008 | 17 | 23 | 11.3 | 25.7 | 0.00 | 0.00 | 0.00 | 79 | 1010.0 |
| 20260505215907 | 17 | 41 | 11.3 | 24.1 | 0.00 | 0.00 | 0.00 | 79 | 1009.9 |
| 20260505215807 | 17 | 358 | 11.3 | 24.1 | 0.00 | 0.00 | 0.00 | 79 | 1009.9 |
| 20260505215706 | 17 | 330 | 11.3 | 27.4 | 0.00 | 0.00 | 0.00 | 79 | 1010.0 |
| 20260505215606 | 17 | 40 | 9.7 | 27.4 | 0.00 | 0.00 | 0.00 | 79 | 1009.9 |
| 20260505215509 | 17 | 41 | 9.7 | 27.4 | 0.00 | 0.00 | 0.00 | 79 | 1009.8 |
| 20260505215206 | 17 | 353 | 11.3 | 27.4 | 0.00 | 0.00 | 0.00 | 80 | 1009.9 |
| 20260505215106 | 17 | 352 | 12.9 | 27.4 | 0.00 | 0.00 | 0.00 | 80 | 1009.9 |
| 20260505215008 | 17 | 27 | 12.9 | 27.4 | 0.00 | 0.00 | 0.00 | 79 | 1009.8 |
| 20260505214906 | 17 | 52 | 12.9 | 27.4 | 0.00 | 0.00 | 0.00 | 80 | 1009.7 |
| 20260505214707 | 17 | 283 | 12.9 | 27.4 | 0.00 | 0.00 | 0.00 | 80 | 1009.7 |
| 20260505214606 | 17 | 20 | 12.9 | 27.4 | 0.00 | 0.00 | 0.00 | 80 | 1009.7 |
| 20260505214509 | 18 | 77 | 12.9 | 27.4 | 0.00 | 0.00 | 0.00 | 80 | 1009.7 |
| 20260505214308 | 18 | 72 | 12.9 | 27.4 | 0.00 | 0.00 | 0.00 | 80 | 1009.6 |
| 20260505214207 | 18 | 52 | 12.9 | 27.4 | 0.00 | 0.00 | 0.00 | 80 | 1009.6 |
| 20260505214008 | 18 | 49 | 12.9 | 24.1 | 0.00 | 0.00 | 0.00 | 80 | 1009.6 |
| 20260505213907 | 18 | 55 | 12.9 | 25.7 | 0.00 | 0.00 | 0.00 | 80 | 1009.5 |
| 20260505213807 | 18 | 16 | 12.9 | 25.7 | 0.00 | 0.00 | 0.00 | 80 | 1009.5 |
| 20260505213706 | 18 | 58 | 12.9 | 25.7 | 0.00 | 0.00 | 0.00 | 80 | 1009.5 |
| 20260505213608 | 18 | 48 | 14.5 | 38.6 | 0.00 | 0.00 | 0.00 | 80 | 1009.5 |
| 20260505213508 | 18 | 20 | 14.5 | 38.6 | 0.00 | 0.00 | 0.00 | 80 | 1009.5 |
| 20260505213306 | 18 | 2 | 16.1 | 38.6 | 0.00 | 0.00 | 0.00 | 80 | 1009.4 |
| 20260505213206 | 18 | 54 | 16.1 | 38.6 | 0.00 | 0.00 | 0.00 | 80 | 1009.4 |
| 20260505213107 | 18 | 52 | 17.7 | 38.6 | 0.00 | 0.00 | 0.00 | 80 | 1009.3 |
| 20260505212906 | 18 | 16 | 16.1 | 38.6 | 0.00 | 0.00 | 0.00 | 80 | 1009.4 |
| 20260505212806 | 18 | 10 | 16.1 | 38.6 | 0.00 | 0.00 | 0.00 | 80 | 1009.3 |
| 20260505212707 | 18 | 352 | 14.5 | 38.6 | 0.00 | 0.00 | 0.00 | 80 | 1009.3 |
| 20260505212507 | 18 | 19 | 12.9 | 33.8 | 0.00 | 0.00 | 0.00 | 81 | 1009.4 |
| 20260505212307 | 18 | 351 | 12.9 | 33.8 | 0.00 | 0.00 | 0.00 | 81 | 1009.3 |
| 20260505212206 | 18 | 4 | 11.3 | 32.2 | 0.00 | 0.00 | 0.00 | 81 | 1009.3 |
| 20260505212105 | 18 | 26 | 11.3 | 32.2 | 0.00 | 0.00 | 0.00 | 81 | 1009.3 |
| 20260505212008 | 18 | 133 | 11.3 | 32.2 | 0.00 | 0.00 | 0.00 | 81 | 1009.3 |
| 20260505211907 | 18 | 221 | 11.3 | 32.2 | 0.00 | 0.00 | 0.00 | 81 | 1009.4 |
| 20260505211808 | 18 | 58 | 11.3 | 32.2 | 0.00 | 0.00 | 0.00 | 80 | 1009.2 |
| 20260505211706 | 18 | 295 | 11.3 | 32.2 | 0.00 | 0.00 | 0.00 | 80 | 1009.3 |
| 20260505211508 | 19 | 320 | 11.3 | 32.2 | 0.00 | 0.00 | 0.00 | 80 | 1009.1 |
| 20260505211407 | 19 | 330 | 11.3 | 32.2 | 0.00 | 0.00 | 0.00 | 79 | 1009.2 |
| 20260505211306 | 19 | 339 | 9.7 | 25.7 | 0.00 | 0.00 | 0.00 | 79 | 1009.2 |
| 20260505211205 | 19 | 299 | 9.7 | 25.7 | 0.00 | 0.00 | 0.00 | 79 | 1009.2 |
| 20260505211010 | 19 | 24 | 9.7 | 25.7 | 0.00 | 0.00 | 0.00 | 78 | 1009.1 |
| 20260505210906 | 19 | 285 | 9.7 | 24.1 | 0.00 | 0.00 | 0.00 | 78 | 1009.1 |
| 20260505210807 | 19 | 29 | 9.7 | 25.7 | 0.00 | 0.00 | 0.00 | 77 | 1009.0 |
| 20260505210706 | 19 | 301 | 9.7 | 25.7 | 0.00 | 0.00 | 0.00 | 77 | 1009.0 |
| 20260505210508 | 20 | 29 | 8.0 | 25.7 | 0.00 | 0.00 | 0.00 | 76 | 1008.9 |
| 20260505210407 | 20 | 342 | 8.0 | 25.7 | 0.00 | 0.00 | 0.00 | 76 | 1009.0 |
| 20260505210306 | 20 | 321 | 6.4 | 25.7 | 0.00 | 0.00 | 0.00 | 76 | 1008.9 |
| 20260505210106 | 20 | 33 | 6.4 | 25.7 | 0.00 | 0.00 | 0.00 | 75 | 1008.9 |
| 20260505210014 | 20 | 13 | 6.4 | 25.7 | 0.00 | 0.00 | 0.00 | 75 | 1008.9 |
| 20260505205906 | 20 | 357 | 4.8 | 19.3 | 0.00 | 0.00 | 0.00 | 74 | 1008.8 |
| 20260505205807 | 20 | 353 | 4.8 | 19.3 | 0.00 | 0.00 | 0.00 | 74 | 1008.8 |
| 20260505205707 | 20 | 28 | 4.8 | 19.3 | 0.00 | 0.00 | 0.00 | 74 | 1008.8 |
| 20260505205610 | 20 | 68 | 4.8 | 19.3 | 0.00 | 0.00 | 0.00 | 73 | 1008.8 |
| 20260505205508 | 20 | 13 | 3.2 | 19.3 | 0.00 | 0.00 | 0.00 | 73 | 1008.7 |
| 20260505205408 | 20 | 63 | 3.2 | 19.3 | 0.00 | 0.00 | 0.00 | 73 | 1008.7 |
| 20260505205307 | 20 | 44 | 4.8 | 19.3 | 0.00 | 0.00 | 0.00 | 72 | 1008.8 |
| 20260505205107 | 20 | 61 | 4.8 | 19.3 | 0.00 | 0.00 | 0.00 | 72 | 1008.7 |
| 20260505205011 | 20 | 50 | 4.8 | 19.3 | 0.00 | 0.00 | 0.00 | 72 | 1008.6 |
| 20260505204907 | 20 | 272 | 4.8 | 19.3 | 0.00 | 0.00 | 0.00 | 71 | 1008.7 |
| 20260505204807 | 20 | 343 | 4.8 | 19.3 | 0.00 | 0.00 | 0.00 | 71 | 1008.6 |
| 20260505204707 | 20 | 335 | 4.8 | 16.1 | 0.00 | 0.00 | 0.00 | 71 | 1008.6 |
| 20260505204509 | 20 | 44 | 6.4 | 16.1 | 0.00 | 0.00 | 0.00 | 70 | 1008.6 |
| 20260505204408 | 20 | 64 | 6.4 | 16.1 | 0.00 | 0.00 | 0.00 | 69 | 1008.6 |
| 20260505204307 | 20 | 341 | 6.4 | 16.1 | 0.00 | 0.00 | 0.00 | 68 | 1008.6 |
| 20260505204207 | 20 | 311 | 6.4 | 16.1 | 0.00 | 0.00 | 0.00 | 68 | 1008.6 |
| 20260505204107 | 20 | 321 | 6.4 | 16.1 | 0.00 | 0.00 | 0.00 | 67 | 1008.6 |
| 20260505204009 | 20 | 295 | 6.4 | 16.1 | 0.00 | 0.00 | 0.00 | 67 | 1008.5 |
| 20260505203908 | 20 | 317 | 6.4 | 16.1 | 0.00 | 0.00 | 0.00 | 67 | 1008.4 |
| 20260505203809 | 20 | 303 | 6.4 | 16.1 | 0.00 | 0.00 | 0.00 | 67 | 1008.6 |
| 20260505203707 | 20 | 30 | 4.8 | 16.1 | 0.00 | 0.00 | 0.00 | 67 | 1008.5 |
| 20260505203607 | 20 | 309 | 3.2 | 16.1 | 0.00 | 0.00 | 0.00 | 67 | 1008.5 |
| 20260505203509 | 20 | 347 | 3.2 | 16.1 | 0.00 | 0.00 | 0.00 | 66 | 1008.5 |
| 20260505203406 | 20 | 318 | 1.6 | 14.5 | 0.00 | 0.00 | 0.00 | 66 | 1008.5 |
| 20260505203308 | 20 | 258 | 1.6 | 14.5 | 0.00 | 0.00 | 0.00 | 67 | 1008.5 |
| 20260505203207 | 20 | 325 | 1.6 | 14.5 | 0.00 | 0.00 | 0.00 | 67 | 1008.6 |
| 20260505203107 | 20 | 325 | 1.6 | 14.5 | 0.00 | 0.00 | 0.00 | 67 | 1008.6 |
| 20260505203009 | 20 | 287 | 0.0 | 6.4 | 0.00 | 0.00 | 0.00 | 68 | 1008.4 |
| 20260505202907 | 20 | 199 | 0.0 | 0.0 | 0.00 | 0.00 | 0.00 | 68 | 1008.4 |
| 20260505202807 | 20 | 199 | 0.0 | 0.0 | 0.00 | 0.00 | 0.00 | 68 | 1008.4 |
| 20260505202709 | 20 | 199 | 0.0 | 0.0 | 0.00 | 0.00 | 0.00 | 68 | 1008.4 |
| 20260505202509 | 20 | 200 | 0.0 | 1.6 | 0.00 | 0.00 | 0.00 | 68 | 1008.3 |
| 20260505202407 | 20 | 200 | 0.0 | 3.2 | 0.00 | 0.00 | 0.00 | 68 | 1008.4 |
| 20260505202307 | 20 | 200 | 1.6 | 4.8 | 0.00 | 0.00 | 0.00 | 68 | 1008.3 |
| 20260505202207 | 20 | 200 | 1.6 | 4.8 | 0.00 | 0.00 | 0.00 | 68 | 1008.3 |
| 20260505202106 | 20 | 200 | 1.6 | 6.4 | 0.00 | 0.00 | 0.00 | 68 | 1008.3 |
| 20260505201907 | 20 | 177 | 1.6 | 6.4 | 0.00 | 0.00 | 0.00 | 69 | 1008.3 |
| 20260505201808 | 20 | 177 | 1.6 | 6.4 | 0.00 | 0.00 | 0.00 | 69 | 1008.3 |
| 20260505201707 | 20 | 177 | 1.6 | 6.4 | 0.00 | 0.00 | 0.00 | 69 | 1008.3 |
| 20260505201609 | 20 | 177 | 1.6 | 6.4 | 0.00 | 0.00 | 0.00 | 69 | 1008.3 |
| 20260505201508 | 20 | 177 | 1.6 | 6.4 | 0.00 | 0.00 | 0.00 | 69 | 1008.2 |
| 20260505201409 | 20 | 160 | 1.6 | 6.4 | 0.00 | 0.00 | 0.00 | 69 | 1008.2 |
| 20260505201309 | 20 | 320 | 1.6 | 6.4 | 0.00 | 0.00 | 0.00 | 69 | 1008.3 |
| 20260505201207 | 20 | 320 | 0.0 | 4.8 | 0.00 | 0.00 | 0.00 | 70 | 1008.2 |
| 20260505201107 | 20 | 241 | 0.0 | 4.8 | 0.00 | 0.00 | 0.00 | 70 | 1008.2 |
| 20260505201009 | 20 | 241 | 0.0 | 4.8 | 0.00 | 0.00 | 0.00 | 70 | 1008.2 |
| 20260505200706 | 20 | 276 | 0.0 | 0.0 | 0.00 | 0.00 | 0.00 | 70 | 1008.2 |
| 20260505200609 | 20 | 335 | 0.0 | 0.0 | 0.00 | 0.00 | 0.00 | 70 | 1008.2 |
| 20260505200509 | 20 | 335 | 0.0 | 0.0 | 0.00 | 0.00 | 0.00 | 71 | 1008.1 |
| 20260505200408 | 20 | 335 | 0.0 | 0.0 | 0.00 | 0.00 | 0.00 | 71 | 1008.1 |
| 20260505200307 | 20 | 335 | 0.0 | 0.0 | 0.00 | 0.00 | 0.00 | 71 | 1008.1 |
| 20260505200207 | 20 | 335 | 0.0 | 0.0 | 0.00 | 0.00 | 0.00 | 71 | 1008.0 |
| 20260505200107 | 20 | 335 | 0.0 | 0.0 | 0.00 | 0.00 | 0.00 | 71 | 1008.0 |
| 20260505200010 | 20 | 335 | 0.0 | 0.0 | 0.00 | 0.00 | 0.00 | 71 | 1008.1 |
| 20260505195905 | 20 | 335 | 0.0 | 1.6 | 0.00 | 0.00 | 0.00 | 71 | 1008.0 |
| 20260505195806 | 20 | 335 | 0.0 | 1.6 | 0.00 | 0.00 | 0.00 | 72 | 1008.0 |
| 20260505195707 | 20 | 335 | 0.0 | 1.6 | 0.00 | 0.00 | 0.00 | 72 | 1007.9 |
| 20260505195508 | 20 | 335 | 0.0 | 3.2 | 0.00 | 0.00 | 0.00 | 72 | 1008.0 |
| 20260505195307 | 20 | 335 | 1.6 | 3.2 | 0.00 | 0.00 | 0.00 | 72 | 1007.9 |
| 20260505195206 | 20 | 335 | 1.6 | 3.2 | 0.00 | 0.00 | 0.00 | 72 | 1007.9 |
| 20260505195105 | 20 | 335 | 1.6 | 3.2 | 0.00 | 0.00 | 0.00 | 71 | 1007.9 |
| 20260505195016 | 20 | 335 | 1.6 | 3.2 | 0.00 | 0.00 | 0.00 | 71 | 1007.8 |
| 20260505194806 | 20 | 335 | 1.6 | 4.8 | 0.00 | 0.00 | 0.00 | 71 | 1007.9 |
| 20260505194707 | 20 | 335 | 1.6 | 4.8 | 0.00 | 0.00 | 0.00 | 71 | 1007.8 |
| 20260505194606 | 20 | 335 | 1.6 | 4.8 | 0.00 | 0.00 | 0.00 | 72 | 1007.9 |
| 20260505194508 | 20 | 335 | 1.6 | 4.8 | 0.00 | 0.00 | 0.00 | 72 | 1007.8 |
| 20260505194406 | 20 | 335 | 0.0 | 4.8 | 0.00 | 0.00 | 0.00 | 72 | 1007.8 |
| 20260505194307 | 20 | 335 | 1.6 | 4.8 | 0.00 | 0.00 | 0.00 | 72 | 1007.8 |
| 20260505194206 | 20 | 335 | 1.6 | 4.8 | 0.00 | 0.00 | 0.00 | 72 | 1007.8 |
| 20260505194106 | 20 | 335 | 1.6 | 4.8 | 0.00 | 0.00 | 0.00 | 72 | 1007.8 |
| 20260505193906 | 20 | 335 | 1.6 | 4.8 | 0.00 | 0.00 | 0.00 | 72 | 1007.8 |
| 20260505193706 | 20 | 170 | 1.6 | 9.7 | 0.00 | 0.00 | 0.00 | 73 | 1007.8 |
| 20260505193406 | 20 | 170 | 1.6 | 9.7 | 0.00 | 0.00 | 0.00 | 73 | 1007.7 |
| 20260505193306 | 20 | 170 | 1.6 | 9.7 | 0.00 | 0.00 | 0.00 | 73 | 1007.7 |
| 20260505193206 | 20 | 170 | 1.6 | 9.7 | 0.00 | 0.00 | 0.00 | 73 | 1007.7 |
| 20260505193107 | 20 | 170 | 1.6 | 9.7 | 0.00 | 0.00 | 0.00 | 73 | 1007.7 |
| 20260505193009 | 20 | 170 | 1.6 | 9.7 | 0.00 | 0.00 | 0.00 | 73 | 1007.6 |
| 20260505192906 | 20 | 170 | 1.6 | 9.7 | 0.00 | 0.00 | 0.00 | 74 | 1007.6 |
| 20260505192806 | 20 | 164 | 1.6 | 8.0 | 0.00 | 0.00 | 0.00 | 74 | 1007.6 |
| 20260505192706 | 20 | 133 | 1.6 | 8.0 | 0.00 | 0.00 | 0.00 | 74 | 1007.6 |
| 20260505192607 | 20 | 343 | 1.6 | 8.0 | 0.00 | 0.00 | 0.00 | 74 | 1007.6 |
| 20260505192508 | 20 | 303 | 1.6 | 8.0 | 0.00 | 0.00 | 0.00 | 74 | 1007.6 |
| 20260505192405 | 20 | 128 | 1.6 | 8.0 | 0.00 | 0.00 | 0.00 | 74 | 1007.6 |
| 20260505192306 | 20 | 95 | 1.6 | 4.8 | 0.00 | 0.00 | 0.00 | 74 | 1007.7 |
| 20260505192207 | 20 | 95 | 1.6 | 4.8 | 0.00 | 0.00 | 0.00 | 74 | 1007.6 |
| 20260505192106 | 20 | 95 | 1.6 | 6.4 | 0.00 | 0.00 | 0.00 | 74 | 1007.6 |
| 20260505192008 | 20 | 134 | 1.6 | 6.4 | 0.00 | 0.00 | 0.00 | 75 | 1007.6 |
| 20260505191906 | 20 | 23 | 1.6 | 6.4 | 0.00 | 0.00 | 0.00 | 75 | 1007.6 |
| 20260505191806 | 20 | 23 | 3.2 | 6.4 | 0.00 | 0.00 | 0.00 | 75 | 1007.6 |
| 20260505191706 | 20 | 314 | 3.2 | 6.4 | 0.00 | 0.00 | 0.00 | 76 | 1007.6 |
| 20260505191607 | 20 | 314 | 3.2 | 6.4 | 0.00 | 0.00 | 0.00 | 75 | 1007.6 |
| 20260505191508 | 20 | 314 | 3.2 | 6.4 | 0.00 | 0.00 | 0.00 | 76 | 1007.6 |
| 20260505191407 | 20 | 314 | 1.6 | 6.4 | 0.00 | 0.00 | 0.00 | 76 | 1007.6 |
| 20260505191306 | 20 | 314 | 1.6 | 6.4 | 0.00 | 0.00 | 0.00 | 76 | 1007.5 |
| 20260505191106 | 20 | 231 | 1.6 | 4.8 | 0.00 | 0.00 | 0.00 | 77 | 1007.5 |
| 20260505191008 | 20 | 354 | 1.6 | 4.8 | 0.00 | 0.00 | 0.00 | 77 | 1007.4 |
| 20260505190906 | 20 | 45 | 1.6 | 4.8 | 0.00 | 0.00 | 0.00 | 77 | 1007.4 |
| 20260505190706 | 20 | 358 | 1.6 | 4.8 | 0.00 | 0.00 | 0.00 | 78 | 1007.5 |
| 20260505190606 | 20 | 314 | 3.2 | 6.4 | 0.00 | 0.00 | 0.00 | 78 | 1007.4 |
| 20260505190508 | 20 | 314 | 3.2 | 6.4 | 0.00 | 0.00 | 0.00 | 78 | 1007.3 |
| 20260505190407 | 20 | 314 | 3.2 | 6.4 | 0.00 | 0.00 | 0.00 | 78 | 1007.3 |
| 20260505190306 | 20 | 314 | 3.2 | 6.4 | 0.00 | 0.00 | 0.00 | 78 | 1007.4 |
| 20260505190205 | 20 | 314 | 3.2 | 6.4 | 0.00 | 0.00 | 0.00 | 78 | 1007.4 |
| 20260505190106 | 20 | 314 | 1.6 | 6.4 | 0.00 | 0.00 | 0.00 | 78 | 1007.4 |
| 20260505190008 | 20 | 352 | 1.6 | 6.4 | 0.00 | 0.00 | 0.00 | 78 | 1007.4 |
| 20260505185906 | 20 | 352 | 1.6 | 6.4 | 0.00 | 0.00 | 0.00 | 78 | 1007.4 |
| 20260505185806 | 20 | 80 | 1.6 | 6.4 | 0.00 | 0.00 | 0.00 | 78 | 1007.3 |
| 20260505185708 | 20 | 80 | 1.6 | 6.4 | 0.00 | 0.00 | 0.00 | 78 | 1007.3 |
| 20260505185507 | 20 | 131 | 1.6 | 4.8 | 0.00 | 0.00 | 0.00 | 78 | 1007.3 |